Wetterdaten: Sonntag, 20.11.2011
Datum Zeit Temp. Innen Temp. Aussen UV X Diff Temp. Feuchte Inne Feuchte Auss Sonnenschein Luftdruck Regen ab 0,1 Wind Sonnenschein T Regendauer Windben
20.11.2011 00:00 16,1 C 4,9 C 0,0 UV-I 0,0 C 51 % 83 % 0 % 1019,4 hPa 0,0 l/m 0,0 km/h (0 Bft) 0 min 0 min 0,0 km/h (0 Bft)
20.11.2011 00:02 16,1 C 4,8 C 0,0 UV-I 0,0 C 51 % 83 % 0 % 1019,4 hPa 0,0 l/m 0,0 km/h (0 Bft) 0 min 0 min 0,0 km/h (0 Bft)
20.11.2011 00:04 16,1 C 4,9 C 0,0 UV-I 0,0 C 51 % 83 % 0 % 1019,4 hPa 0,0 l/m 0,0 km/h (0 Bft) 0 min 0 min 0,0 km/h (0 Bft)
20.11.2011 00:06 16,1 C 4,8 C 0,0 UV-I 0,0 C 51 % 84 % 0 % 1019,0 hPa 0,0 l/m 0,4 km/h (0 Bft) 0 min 0 min 3,5 km/h (1 Bft)
20.11.2011 00:08 16,1 C 4,8 C 0,0 UV-I 0,0 C 51 % 84 % 0 % 1019,0 hPa 0,0 l/m 0,4 km/h (0 Bft) 0 min 0 min 0,0 km/h (0 Bft)
20.11.2011 00:10 16,1 C 4,8 C 0,0 UV-I 0,0 C 51 % 84 % 0 % 1019,0 hPa 0,0 l/m 0,4 km/h (0 Bft) 0 min 0 min 0,0 km/h (0 Bft)
20.11.2011 00:12 16,1 C 4,8 C 0,0 UV-I 0,0 C 51 % 84 % 0 % 1019,0 hPa 0,0 l/m 0,4 km/h (0 Bft) 0 min 0 min 0,0 km/h (0 Bft)
20.11.2011 00:14 15,9 C 4,8 C 0,0 UV-I 0,0 C 51 % 84 % 0 % 1019,0 hPa 0,0 l/m 0,4 km/h (0 Bft) 0 min 0 min 0,0 km/h (0 Bft)
20.11.2011 00:16 15,9 C 4,8 C 0,0 UV-I 0,0 C 51 % 84 % 0 % 1019,0 hPa 0,0 l/m 0,0 km/h (0 Bft) 0 min 0 min 0,0 km/h (0 Bft)
20.11.2011 00:18 15,9 C 4,8 C 0,0 UV-I 0,0 C 51 % 85 % 0 % 1019,0 hPa 0,0 l/m 0,0 km/h (0 Bft) 0 min 0 min 0,0 km/h (0 Bft)
20.11.2011 00:20 15,9 C 4,8 C 0,0 UV-I 0,0 C 51 % 85 % 0 % 1019,0 hPa 0,0 l/m 0,0 km/h (0 Bft) 0 min 0 min 0,0 km/h (0 Bft)
20.11.2011 00:22 15,9 C 4,7 C 0,0 UV-I 0,0 C 51 % 85 % 0 % 1019,0 hPa 0,0 l/m 0,0 km/h (0 Bft) 0 min 0 min 0,0 km/h (0 Bft)
20.11.2011 00:24 15,9 C 4,7 C 0,0 UV-I 0,0 C 51 % 85 % 0 % 1019,0 hPa 0,0 l/m 0,0 km/h (0 Bft) 0 min 0 min 0,0 km/h (0 Bft)
20.11.2011 00:26 15,9 C 4,7 C 0,0 UV-I 0,0 C 51 % 85 % 0 % 1019,2 hPa 0,0 l/m 0,0 km/h (0 Bft) 0 min 0 min 0,0 km/h (0 Bft)
20.11.2011 00:28 16,0 C 4,7 C 0,0 UV-I 0,0 C 51 % 85 % 0 % 1019,2 hPa 0,0 l/m 0,0 km/h (0 Bft) 0 min 0 min 0,0 km/h (0 Bft)
20.11.2011 00:30 16,0 C 4,7 C 0,0 UV-I 0,0 C 51 % 85 % 0 % 1019,2 hPa 0,0 l/m 0,0 km/h (0 Bft) 0 min 0 min 0,0 km/h (0 Bft)
20.11.2011 00:32 16,0 C 4,7 C 0,0 UV-I 0,0 C 51 % 85 % 0 % 1019,2 hPa 0,0 l/m 0,0 km/h (0 Bft) 0 min 0 min 0,0 km/h (0 Bft)
20.11.2011 00:34 16,0 C 4,7 C 0,0 UV-I 0,0 C 51 % 85 % 0 % 1019,2 hPa 0,0 l/m 0,0 km/h (0 Bft) 0 min 0 min 0,0 km/h (0 Bft)
20.11.2011 00:36 16,0 C 4,7 C 0,0 UV-I 0,0 C 51 % 85 % 0 % 1019,2 hPa 0,0 l/m 0,0 km/h (0 Bft) 0 min 0 min 0,0 km/h (0 Bft)
20.11.2011 00:38 16,0 C 4,6 C 0,0 UV-I 0,0 C 51 % 85 % 0 % 1019,2 hPa 0,0 l/m 0,0 km/h (0 Bft) 0 min 0 min 0,0 km/h (0 Bft)
20.11.2011 00:40 16,0 C 4,6 C 0,0 UV-I 0,0 C 51 % 85 % 0 % 1019,2 hPa 0,0 l/m 0,0 km/h (0 Bft) 0 min 0 min 0,0 km/h (0 Bft)
20.11.2011 00:42 16,0 C 4,6 C 0,0 UV-I 0,0 C 51 % 86 % 0 % 1019,2 hPa 0,0 l/m 0,4 km/h (0 Bft) 0 min 0 min 3,2 km/h (1 Bft)
20.11.2011 00:44 16,0 C 4,6 C 0,0 UV-I 0,0 C 51 % 86 % 0 % 1019,2 hPa 0,0 l/m 0,4 km/h (0 Bft) 0 min 0 min 0,0 km/h (0 Bft)
20.11.2011 00:46 16,0 C 4,7 C 0,0 UV-I 0,0 C 51 % 86 % 0 % 1019,2 hPa 0,0 l/m 0,4 km/h (0 Bft) 0 min 0 min 0,0 km/h (0 Bft)
20.11.2011 00:48 16,0 C 4,7 C 0,0 UV-I 0,0 C 51 % 86 % 0 % 1019,2 hPa 0,0 l/m 0,4 km/h (0 Bft) 0 min 0 min 0,0 km/h (0 Bft)
20.11.2011 00:50 16,0 C 4,6 C 0,0 UV-I 0,0 C 51 % 86 % 0 % 1019,2 hPa 0,0 l/m 0,4 km/h (0 Bft) 0 min 0 min 0,0 km/h (0 Bft)
20.11.2011 00:52 16,0 C 4,6 C 0,0 UV-I 0,0 C 51 % 86 % 0 % 1019,2 hPa 0,0 l/m 0,0 km/h (0 Bft) 0 min 0 min 0,0 km/h (0 Bft)
20.11.2011 00:54 16,0 C 4,6 C 0,0 UV-I 0,0 C 51 % 86 % 0 % 1019,2 hPa 0,0 l/m 0,0 km/h (0 Bft) 0 min 0 min 0,0 km/h (0 Bft)
20.11.2011 00:56 15,8 C 4,7 C 0,0 UV-I 0,0 C 51 % 86 % 0 % 1019,2 hPa 0,0 l/m 0,0 km/h (0 Bft) 0 min 0 min 0,0 km/h (0 Bft)
20.11.2011 00:58 16,0 C 4,5 C 0,0 UV-I 0,0 C 51 % 86 % 0 % 1019,2 hPa 0,0 l/m 0,0 km/h (0 Bft) 0 min 0 min 0,0 km/h (0 Bft)
20.11.2011 01:00 15,8 C 4,5 C 0,0 UV-I 0,0 C 51 % 86 % 0 % 1019,2 hPa 0,0 l/m 0,0 km/h (0 Bft) 0 min 0 min 0,0 km/h (0 Bft)
20.11.2011 01:02 15,8 C 4,5 C 0,0 UV-I 0,0 C 51 % 86 % 0 % 1019,2 hPa 0,0 l/m 0,0 km/h (0 Bft) 0 min 0 min 0,0 km/h (0 Bft)
20.11.2011 01:04 15,8 C 4,5 C 0,0 UV-I 0,0 C 51 % 86 % 0 % 1019,2 hPa 0,0 l/m 0,0 km/h (0 Bft) 0 min 0 min 0,0 km/h (0 Bft)
20.11.2011 01:06 15,9 C 4,5 C 0,0 UV-I 0,0 C 51 % 86 % 0 % 1018,9 hPa 0,0 l/m 0,0 km/h (0 Bft) 0 min 0 min 0,0 km/h (0 Bft)
20.11.2011 01:08 15,8 C 4,5 C 0,0 UV-I 0,0 C 51 % 86 % 0 % 1018,9 hPa 0,0 l/m 0,0 km/h (0 Bft) 0 min 0 min 0,0 km/h (0 Bft)
20.11.2011 01:10 15,9 C 4,5 C 0,0 UV-I 0,0 C 51 % 86 % 0 % 1018,9 hPa 0,0 l/m 0,0 km/h (0 Bft) 0 min 0 min 0,0 km/h (0 Bft)
20.11.2011 01:12 15,8 C 4,5 C 0,0 UV-I 0,0 C 51 % 86 % 0 % 1018,9 hPa 0,0 l/m 0,0 km/h (0 Bft) 0 min 0 min 0,0 km/h (0 Bft)
20.11.2011 01:14 15,9 C 4,5 C 0,0 UV-I 0,0 C 51 % 86 % 0 % 1018,9 hPa 0,0 l/m 0,0 km/h (0 Bft) 0 min 0 min 0,0 km/h (0 Bft)
20.11.2011 01:16 15,9 C 4,5 C 0,0 UV-I 0,0 C 51 % 86 % 0 % 1018,9 hPa 0,0 l/m 0,0 km/h (0 Bft) 0 min 2 min 0,0 km/h (0 Bft)
20.11.2011 01:18 15,9 C 4,5 C 0,0 UV-I 0,0 C 51 % 86 % 0 % 1018,9 hPa 0,0 l/m 0,0 km/h (0 Bft) 0 min 0 min 0,0 km/h (0 Bft)
20.11.2011 01:20 15,9 C 4,4 C 0,0 UV-I 0,0 C 51 % 86 % 0 % 1018,9 hPa 0,0 l/m 0,0 km/h (0 Bft) 0 min 0 min 0,0 km/h (0 Bft)
20.11.2011 01:22 15,9 C 4,5 C 0,0 UV-I 0,0 C 51 % 86 % 0 % 1018,9 hPa 0,0 l/m 0,0 km/h (0 Bft) 0 min 0 min 0,0 km/h (0 Bft)
20.11.2011 01:24 15,9 C 4,5 C 0,0 UV-I 0,0 C 51 % 86 % 0 % 1018,9 hPa 0,0 l/m 0,0 km/h (0 Bft) 0 min 0 min 0,0 km/h (0 Bft)
20.11.2011 01:26 15,9 C 4,4 C 0,0 UV-I 0,0 C 51 % 86 % 0 % 1018,8 hPa 0,0 l/m 0,0 km/h (0 Bft) 0 min 0 min 0,0 km/h (0 Bft)
20.11.2011 01:28 15,9 C 4,4 C 0,0 UV-I 0,0 C 51 % 86 % 0 % 1018,8 hPa 0,0 l/m 0,0 km/h (0 Bft) 0 min 0 min 0,0 km/h (0 Bft)
20.11.2011 01:30 15,9 C 4,3 C 0,0 UV-I 0,0 C 51 % 86 % 0 % 1018,8 hPa 0,0 l/m 0,0 km/h (0 Bft) 0 min 0 min 0,0 km/h (0 Bft)
20.11.2011 01:32 15,9 C 4,3 C 0,0 UV-I 0,0 C 51 % 86 % 0 % 1018,8 hPa 0,0 l/m 0,0 km/h (0 Bft) 0 min 0 min 0,0 km/h (0 Bft)
20.11.2011 01:34 15,8 C 4,2 C 0,0 UV-I 0,0 C 51 % 86 % 0 % 1018,8 hPa 0,0 l/m 0,0 km/h (0 Bft) 0 min 0 min 0,0 km/h (0 Bft)
20.11.2011 01:36 15,8 C 4,3 C 0,0 UV-I 0,0 C 51 % 86 % 0 % 1018,8 hPa 0,0 l/m 0,0 km/h (0 Bft) 0 min 0 min 0,0 km/h (0 Bft)
20.11.2011 01:38 15,9 C 4,2 C 0,0 UV-I 0,0 C 51 % 86 % 0 % 1018,8 hPa 0,0 l/m 0,0 km/h (0 Bft) 0 min 0 min 0,0 km/h (0 Bft)
20.11.2011 01:40 15,8 C 4,1 C 0,0 UV-I 0,0 C 51 % 86 % 0 % 1018,8 hPa 0,0 l/m 0,0 km/h (0 Bft) 0 min 0 min 0,0 km/h (0 Bft)
20.11.2011 01:42 15,9 C 4,1 C 0,0 UV-I 0,0 C 51 % 86 % 0 % 1018,8 hPa 0,0 l/m 0,0 km/h (0 Bft) 0 min 0 min 0,0 km/h (0 Bft)
20.11.2011 01:44 15,8 C 4,0 C 0,0 UV-I 0,0 C 51 % 86 % 0 % 1018,8 hPa 0,0 l/m 0,0 km/h (0 Bft) 0 min 0 min 0,0 km/h (0 Bft)
20.11.2011 01:46 15,9 C 4,0 C 0,0 UV-I 0,0 C 51 % 86 % 0 % 1018,9 hPa 0,0 l/m 0,0 km/h (0 Bft) 0 min 0 min 0,0 km/h (0 Bft)
20.11.2011 01:48 15,8 C 4,1 C 0,0 UV-I 0,0 C 51 % 87 % 0 % 1018,9 hPa 0,0 l/m 0,0 km/h (0 Bft) 0 min 0 min 0,0 km/h (0 Bft)
20.11.2011 01:50 15,8 C 4,0 C 0,0 UV-I 0,0 C 51 % 87 % 0 % 1018,9 hPa 0,0 l/m 0,4 km/h (0 Bft) 0 min 2 min 0,0 km/h (0 Bft)
20.11.2011 01:52 15,8 C 4,0 C 0,0 UV-I 0,0 C 51 % 87 % 0 % 1018,9 hPa 0,0 l/m 0,4 km/h (0 Bft) 0 min 0 min 3,2 km/h (1 Bft)
20.11.2011 01:54 15,8 C 4,1 C 0,0 UV-I 0,0 C 51 % 87 % 0 % 1018,9 hPa 0,0 l/m 0,4 km/h (0 Bft) 0 min 0 min 0,0 km/h (0 Bft)
20.11.2011 01:56 15,8 C 4,1 C 0,0 UV-I 0,0 C 51 % 87 % 0 % 1018,9 hPa 0,0 l/m 0,4 km/h (0 Bft) 0 min 0 min 0,0 km/h (0 Bft)
20.11.2011 01:58 15,8 C 4,1 C 0,0 UV-I 0,0 C 51 % 87 % 0 % 1018,9 hPa 0,0 l/m 0,4 km/h (0 Bft) 0 min 0 min 0,0 km/h (0 Bft)
20.11.2011 02:00 15,8 C 4,1 C 0,0 UV-I 0,0 C 51 % 87 % 0 % 1018,9 hPa 0,0 l/m 0,4 km/h (0 Bft) 0 min 0 min 0,0 km/h (0 Bft)
20.11.2011 02:02 15,8 C 4,1 C 0,0 UV-I 0,0 C 51 % 87 % 0 % 1018,9 hPa 0,0 l/m 0,0 km/h (0 Bft) 0 min 0 min 0,0 km/h (0 Bft)
20.11.2011 02:04 15,8 C 4,1 C 0,0 UV-I 0,0 C 51 % 87 % 0 % 1018,9 hPa 0,0 l/m 0,0 km/h (0 Bft) 0 min 0 min 0,0 km/h (0 Bft)
20.11.2011 02:06 15,8 C 4,1 C 0,0 UV-I 0,0 C 51 % 87 % 0 % 1018,9 hPa 0,0 l/m 0,0 km/h (0 Bft) 0 min 0 min 0,0 km/h (0 Bft)
20.11.2011 02:08 15,8 C 4,1 C 0,0 UV-I 0,0 C 51 % 87 % 0 % 1018,9 hPa 0,0 l/m 0,0 km/h (0 Bft) 0 min 0 min 0,0 km/h (0 Bft)
20.11.2011 02:10 15,8 C 4,1 C 0,0 UV-I 0,0 C 51 % 87 % 0 % 1018,9 hPa 0,0 l/m 0,0 km/h (0 Bft) 0 min 0 min 0,0 km/h (0 Bft)
20.11.2011 02:12 15,8 C 4,1 C 0,0 UV-I 0,0 C 51 % 87 % 0 % 1018,9 hPa 0,0 l/m 0,0 km/h (0 Bft) 0 min 0 min 8,7 km/h (2 Bft)
20.11.2011 02:14 15,8 C 4,2 C 0,0 UV-I 0,0 C 51 % 87 % 0 % 1018,9 hPa 0,0 l/m 0,4 km/h (0 Bft) 0 min 0 min 0,0 km/h (0 Bft)
20.11.2011 02:16 15,8 C 4,3 C 0,0 UV-I 0,0 C 51 % 88 % 0 % 1018,9 hPa 0,0 l/m 0,4 km/h (0 Bft) 0 min 0 min 0,0 km/h (0 Bft)
20.11.2011 02:18 15,8 C 4,3 C 0,0 UV-I 0,0 C 51 % 88 % 0 % 1018,9 hPa 0,0 l/m 0,4 km/h (0 Bft) 0 min 0 min 0,0 km/h (0 Bft)
20.11.2011 02:20 15,8 C 4,3 C 0,0 UV-I 0,0 C 51 % 88 % 0 % 1018,9 hPa 0,0 l/m 0,8 km/h (0 Bft) 0 min 0 min 3,2 km/h (1 Bft)
20.11.2011 02:22 15,8 C 4,2 C 0,0 UV-I 0,0 C 51 % 88 % 0 % 1018,9 hPa 0,0 l/m 0,8 km/h (0 Bft) 0 min 0 min 5,1 km/h (1 Bft)
20.11.2011 02:24 15,8 C 4,3 C 0,0 UV-I 0,0 C 51 % 88 % 0 % 1018,9 hPa 0,0 l/m 0,8 km/h (0 Bft) 0 min 0 min 0,0 km/h (0 Bft)
20.11.2011 02:26 15,8 C 4,3 C 0,0 UV-I 0,0 C 51 % 88 % 0 % 1018,9 hPa 0,0 l/m 1,2 km/h (1 Bft) 0 min 0 min 3,5 km/h (1 Bft)
20.11.2011 02:28 15,8 C 4,4 C 0,0 UV-I 0,0 C 51 % 88 % 0 % 1018,9 hPa 0,0 l/m 2,0 km/h (1 Bft) 0 min 0 min 4,5 km/h (1 Bft)
20.11.2011 02:30 15,8 C 4,4 C 0,0 UV-I 0,0 C 51 % 88 % 0 % 1018,9 hPa 0,0 l/m 2,4 km/h (1 Bft) 0 min 0 min 5,5 km/h (1 Bft)
20.11.2011 02:32 15,8 C 4,4 C 0,0 UV-I 0,0 C 51 % 88 % 0 % 1018,9 hPa 0,0 l/m 3,2 km/h (1 Bft) 0 min 0 min 0,0 km/h (0 Bft)
20.11.2011 02:34 15,8 C 4,4 C 0,0 UV-I 0,0 C 51 % 88 % 0 % 1018,9 hPa 0,0 l/m 3,6 km/h (1 Bft) 0 min 0 min 5,8 km/h (2 Bft)
20.11.2011 02:36 15,8 C 4,5 C 0,0 UV-I 0,0 C 51 % 88 % 0 % 1018,9 hPa 0,0 l/m 3,6 km/h (1 Bft) 0 min 0 min 4,8 km/h (1 Bft)
20.11.2011 02:38 15,8 C 4,5 C 0,0 UV-I 0,0 C 51 % 88 % 0 % 1018,9 hPa 0,0 l/m 3,2 km/h (1 Bft) 0 min 0 min 3,5 km/h (1 Bft)
20.11.2011 02:40 15,8 C 4,6 C 0,0 UV-I 0,0 C 51 % 88 % 0 % 1018,9 hPa 0,0 l/m 3,2 km/h (1 Bft) 0 min 2 min 0,0 km/h (0 Bft)
20.11.2011 02:42 15,8 C 4,6 C 0,0 UV-I 0,0 C 51 % 88 % 0 % 1018,9 hPa 0,0 l/m 2,0 km/h (1 Bft) 0 min 0 min 3,5 km/h (1 Bft)
20.11.2011 02:44 15,8 C 4,6 C 0,0 UV-I 0,0 C 51 % 88 % 0 % 1018,9 hPa 0,0 l/m 1,6 km/h (1 Bft) 0 min 0 min 4,2 km/h (1 Bft)
20.11.2011 02:46 15,8 C 4,7 C 0,0 UV-I 0,0 C 51 % 88 % 0 % 1018,9 hPa 0,0 l/m 1,6 km/h (1 Bft) 0 min 0 min 0,0 km/h (0 Bft)
20.11.2011 02:48 15,8 C 4,7 C 0,0 UV-I 0,0 C 51 % 88 % 0 % 1018,9 hPa 0,0 l/m 1,2 km/h (1 Bft) 0 min 0 min 0,0 km/h (0 Bft)
20.11.2011 02:50 15,6 C 4,6 C 0,0 UV-I 0,0 C 51 % 88 % 0 % 1018,9 hPa 0,0 l/m 1,2 km/h (1 Bft) 0 min 0 min 0,0 km/h (0 Bft)
20.11.2011 02:52 15,8 C 4,6 C 0,0 UV-I 0,0 C 51 % 88 % 0 % 1018,9 hPa 0,0 l/m 1,2 km/h (1 Bft) 0 min 0 min 0,0 km/h (0 Bft)
20.11.2011 02:54 15,6 C 4,6 C 0,0 UV-I 0,0 C 51 % 88 % 0 % 1018,9 hPa 0,0 l/m 0,8 km/h (0 Bft) 0 min 0 min 0,0 km/h (0 Bft)
20.11.2011 02:56 15,8 C 4,5 C 0,0 UV-I 0,0 C 51 % 88 % 0 % 1018,9 hPa 0,0 l/m 0,4 km/h (0 Bft) 0 min 0 min 0,0 km/h (0 Bft)
20.11.2011 02:58 15,6 C 4,5 C 0,0 UV-I 0,0 C 51 % 88 % 0 % 1018,9 hPa 0,0 l/m 0,4 km/h (0 Bft) 0 min 0 min 0,0 km/h (0 Bft)
20.11.2011 03:00 15,6 C 4,5 C 0,0 UV-I 0,0 C 51 % 88 % 0 % 1018,9 hPa 0,0 l/m 0,4 km/h (0 Bft) 0 min 0 min 0,0 km/h (0 Bft)
20.11.2011 03:02 15,6 C 4,5 C 0,0 UV-I 0,0 C 51 % 88 % 0 % 1018,9 hPa 0,0 l/m 0,0 km/h (0 Bft) 0 min 0 min 0,0 km/h (0 Bft)
20.11.2011 03:04 15,6 C 4,5 C 0,0 UV-I 0,0 C 51 % 88 % 0 % 1018,9 hPa 0,0 l/m 0,0 km/h (0 Bft) 0 min 0 min 0,0 km/h (0 Bft)
20.11.2011 03:06 15,6 C 4,5 C 0,0 UV-I 0,0 C 51 % 88 % 0 % 1019,1 hPa 0,0 l/m 0,0 km/h (0 Bft) 0 min 0 min 0,0 km/h (0 Bft)
20.11.2011 03:08 15,6 C 4,4 C 0,0 UV-I 0,0 C 51 % 88 % 0 % 1019,1 hPa 0,0 l/m 0,0 km/h (0 Bft) 0 min 0 min 0,0 km/h (0 Bft)
20.11.2011 03:10 15,6 C 4,4 C 0,0 UV-I 0,0 C 51 % 88 % 0 % 1019,1 hPa 0,0 l/m 0,0 km/h (0 Bft) 0 min 0 min 0,0 km/h (0 Bft)
20.11.2011 03:12 15,6 C 4,5 C 0,0 UV-I 0,0 C 51 % 88 % 0 % 1019,1 hPa 0,0 l/m 0,0 km/h (0 Bft) 0 min 0 min 0,0 km/h (0 Bft)
20.11.2011 03:14 15,6 C 4,4 C 0,0 UV-I 0,0 C 51 % 88 % 0 % 1019,1 hPa 0,0 l/m 0,0 km/h (0 Bft) 0 min 0 min 0,0 km/h (0 Bft)
20.11.2011 03:16 15,6 C 4,3 C 0,0 UV-I 0,0 C 51 % 88 % 0 % 1019,1 hPa 0,0 l/m 0,0 km/h (0 Bft) 0 min 0 min 0,0 km/h (0 Bft)
20.11.2011 03:18 15,6 C 4,3 C 0,0 UV-I 0,0 C 51 % 88 % 0 % 1019,1 hPa 0,0 l/m 0,0 km/h (0 Bft) 0 min 0 min 0,0 km/h (0 Bft)
20.11.2011 03:20 15,6 C 4,2 C 0,0 UV-I 0,0 C 51 % 88 % 0 % 1019,1 hPa 0,0 l/m 0,0 km/h (0 Bft) 0 min 0 min 0,0 km/h (0 Bft)
20.11.2011 03:22 15,6 C 4,2 C 0,0 UV-I 0,0 C 51 % 88 % 0 % 1019,1 hPa 0,0 l/m 0,0 km/h (0 Bft) 0 min 0 min 0,0 km/h (0 Bft)
20.11.2011 03:24 15,6 C 4,1 C 0,0 UV-I 0,0 C 51 % 87 % 0 % 1019,1 hPa 0,0 l/m 0,0 km/h (0 Bft) 0 min 0 min 0,0 km/h (0 Bft)
20.11.2011 03:26 15,6 C 4,0 C 0,0 UV-I 0,0 C 51 % 87 % 0 % 1018,9 hPa 0,0 l/m 0,0 km/h (0 Bft) 0 min 0 min 0,0 km/h (0 Bft)
20.11.2011 03:28 15,7 C 4,0 C 0,0 UV-I 0,0 C 51 % 87 % 0 % 1018,9 hPa 0,0 l/m 0,0 km/h (0 Bft) 0 min 0 min 0,0 km/h (0 Bft)
20.11.2011 03:30 15,6 C 4,0 C 0,0 UV-I 0,0 C 51 % 87 % 0 % 1018,9 hPa 0,0 l/m 0,0 km/h (0 Bft) 0 min 0 min 0,0 km/h (0 Bft)
20.11.2011 03:32 15,7 C 3,9 C 0,0 UV-I 0,0 C 51 % 87 % 0 % 1018,9 hPa 0,0 l/m 0,0 km/h (0 Bft) 0 min 0 min 0,0 km/h (0 Bft)
20.11.2011 03:34 15,7 C 3,8 C 0,0 UV-I 0,0 C 51 % 87 % 0 % 1018,9 hPa 0,0 l/m 0,0 km/h (0 Bft) 0 min 0 min 0,0 km/h (0 Bft)
20.11.2011 03:36 15,6 C 3,9 C 0,0 UV-I 0,0 C 51 % 87 % 0 % 1018,9 hPa 0,0 l/m 0,0 km/h (0 Bft) 0 min 0 min 0,0 km/h (0 Bft)
20.11.2011 03:38 15,7 C 3,8 C 0,0 UV-I 0,0 C 51 % 87 % 0 % 1018,9 hPa 0,0 l/m 0,0 km/h (0 Bft) 0 min 0 min 0,0 km/h (0 Bft)
20.11.2011 03:40 15,7 C 3,7 C 0,0 UV-I 0,0 C 51 % 88 % 0 % 1018,9 hPa 0,0 l/m 0,0 km/h (0 Bft) 0 min 0 min 0,0 km/h (0 Bft)
20.11.2011 03:42 15,7 C 3,7 C 0,0 UV-I 0,0 C 51 % 88 % 0 % 1018,9 hPa 0,0 l/m 0,0 km/h (0 Bft) 0 min 0 min 0,0 km/h (0 Bft)
20.11.2011 03:44 15,6 C 3,7 C 0,0 UV-I 0,0 C 51 % 88 % 0 % 1018,9 hPa 0,0 l/m 0,0 km/h (0 Bft) 0 min 0 min 0,0 km/h (0 Bft)
20.11.2011 03:46 15,7 C 3,7 C 0,0 UV-I 0,0 C 51 % 88 % 0 % 1018,7 hPa 0,0 l/m 0,0 km/h (0 Bft) 0 min 0 min 0,0 km/h (0 Bft)
20.11.2011 03:48 15,6 C 3,7 C 0,0 UV-I 0,0 C 51 % 88 % 0 % 1018,7 hPa 0,0 l/m 0,0 km/h (0 Bft) 0 min 0 min 0,0 km/h (0 Bft)
20.11.2011 03:50 15,6 C 3,8 C 0,0 UV-I 0,0 C 51 % 88 % 0 % 1018,7 hPa 0,0 l/m 0,0 km/h (0 Bft) 0 min 0 min 0,0 km/h (0 Bft)
20.11.2011 03:52 15,7 C 3,9 C 0,0 UV-I 0,0 C 51 % 88 % 0 % 1018,7 hPa 0,0 l/m 0,4 km/h (0 Bft) 0 min 0 min 0,0 km/h (0 Bft)
20.11.2011 03:54 15,6 C 3,9 C 0,0 UV-I 0,0 C 51 % 88 % 0 % 1018,7 hPa 0,0 l/m 0,4 km/h (0 Bft) 0 min 0 min 0,0 km/h (0 Bft)
20.11.2011 03:56 15,6 C 3,9 C 0,0 UV-I 0,0 C 51 % 88 % 0 % 1018,7 hPa 0,0 l/m 0,4 km/h (0 Bft) 0 min 0 min 0,0 km/h (0 Bft)
20.11.2011 03:58 15,6 C 3,8 C 0,0 UV-I 0,0 C 51 % 88 % 0 % 1018,7 hPa 0,0 l/m 0,4 km/h (0 Bft) 0 min 0 min 0,0 km/h (0 Bft)
20.11.2011 04:00 15,6 C 3,8 C 0,0 UV-I 0,0 C 51 % 88 % 0 % 1018,7 hPa 0,0 l/m 0,4 km/h (0 Bft) 0 min 0 min 0,0 km/h (0 Bft)
20.11.2011 04:02 15,6 C 3,8 C 0,0 UV-I 0,0 C 51 % 88 % 0 % 1018,7 hPa 0,0 l/m 0,0 km/h (0 Bft) 0 min 0 min 0,0 km/h (0 Bft)
20.11.2011 04:04 15,6 C 3,8 C 0,0 UV-I 0,0 C 51 % 88 % 0 % 1018,7 hPa 0,0 l/m 0,0 km/h (0 Bft) 0 min 0 min 0,0 km/h (0 Bft)
20.11.2011 04:06 15,6 C 3,9 C 0,0 UV-I 0,0 C 51 % 88 % 0 % 1018,5 hPa 0,0 l/m 0,4 km/h (0 Bft) 0 min 0 min 0,0 km/h (0 Bft)
20.11.2011 04:08 15,6 C 3,9 C 0,0 UV-I 0,0 C 51 % 88 % 0 % 1018,5 hPa 0,0 l/m 0,4 km/h (0 Bft) 0 min 0 min 0,0 km/h (0 Bft)
20.11.2011 04:10 15,6 C 3,9 C 0,0 UV-I 0,0 C 51 % 88 % 0 % 1018,5 hPa 0,0 l/m 0,4 km/h (0 Bft) 0 min 0 min 0,0 km/h (0 Bft)
20.11.2011 04:12 15,6 C 3,9 C 0,0 UV-I 0,0 C 51 % 88 % 0 % 1018,5 hPa 0,0 l/m 0,4 km/h (0 Bft) 0 min 0 min 0,0 km/h (0 Bft)
20.11.2011 04:14 15,6 C 3,9 C 0,0 UV-I 0,0 C 51 % 88 % 0 % 1018,5 hPa 0,0 l/m 0,4 km/h (0 Bft) 0 min 0 min 0,0 km/h (0 Bft)
20.11.2011 04:16 15,6 C 3,9 C 0,0 UV-I 0,0 C 51 % 88 % 0 % 1018,5 hPa 0,0 l/m 0,0 km/h (0 Bft) 0 min 0 min 0,0 km/h (0 Bft)
20.11.2011 04:18 15,6 C 3,9 C 0,0 UV-I 0,0 C 51 % 88 % 0 % 1018,5 hPa 0,0 l/m 0,0 km/h (0 Bft) 0 min 0 min 0,0 km/h (0 Bft)
20.11.2011 04:20 15,6 C 3,8 C 0,0 UV-I 0,0 C 51 % 88 % 0 % 1018,5 hPa 0,0 l/m 0,0 km/h (0 Bft) 0 min 0 min 0,0 km/h (0 Bft)
20.11.2011 04:22 15,6 C 3,9 C 0,0 UV-I 0,0 C 51 % 88 % 0 % 1018,5 hPa 0,0 l/m 0,0 km/h (0 Bft) 0 min 0 min 0,0 km/h (0 Bft)
20.11.2011 04:24 15,6 C 3,9 C 0,0 UV-I 0,0 C 51 % 88 % 0 % 1018,5 hPa 0,0 l/m 0,0 km/h (0 Bft) 0 min 0 min 0,0 km/h (0 Bft)
20.11.2011 04:26 15,6 C 3,7 C 0,0 UV-I 0,0 C 51 % 88 % 0 % 1018,3 hPa 0,0 l/m 0,0 km/h (0 Bft) 0 min 0 min 0,0 km/h (0 Bft)
20.11.2011 04:28 15,6 C 3,7 C 0,0 UV-I 0,0 C 51 % 88 % 0 % 1018,3 hPa 0,0 l/m 0,0 km/h (0 Bft) 0 min 0 min 0,0 km/h (0 Bft)
20.11.2011 04:30 15,6 C 3,6 C 0,0 UV-I 0,0 C 51 % 88 % 0 % 1018,3 hPa 0,0 l/m 0,0 km/h (0 Bft) 0 min 0 min 0,0 km/h (0 Bft)
20.11.2011 04:32 15,6 C 3,7 C 0,0 UV-I 0,0 C 51 % 88 % 0 % 1018,3 hPa 0,0 l/m 0,0 km/h (0 Bft) 0 min 0 min 0,0 km/h (0 Bft)
20.11.2011 04:34 15,6 C 3,6 C 0,0 UV-I 0,0 C 51 % 88 % 0 % 1018,3 hPa 0,0 l/m 0,0 km/h (0 Bft) 0 min 0 min 0,0 km/h (0 Bft)
20.11.2011 04:36 15,6 C 3,5 C 0,0 UV-I 0,0 C 51 % 88 % 0 % 1018,3 hPa 0,0 l/m 0,0 km/h (0 Bft) 0 min 0 min 0,0 km/h (0 Bft)
20.11.2011 04:38 15,6 C 3,4 C 0,0 UV-I 0,0 C 51 % 88 % 0 % 1018,3 hPa 0,0 l/m 0,0 km/h (0 Bft) 0 min 0 min 0,0 km/h (0 Bft)
20.11.2011 04:40 15,6 C 3,5 C 0,0 UV-I 0,0 C 51 % 88 % 0 % 1018,3 hPa 0,0 l/m 0,0 km/h (0 Bft) 0 min 0 min 0,0 km/h (0 Bft)
20.11.2011 04:42 15,6 C 3,4 C 0,0 UV-I 0,0 C 51 % 88 % 0 % 1018,3 hPa 0,0 l/m 0,0 km/h (0 Bft) 0 min 0 min 0,0 km/h (0 Bft)
20.11.2011 04:44 15,6 C 3,3 C 0,0 UV-I 0,0 C 51 % 88 % 0 % 1018,3 hPa 0,0 l/m 0,0 km/h (0 Bft) 0 min 0 min 0,0 km/h (0 Bft)
20.11.2011 04:46 15,6 C 3,3 C 0,0 UV-I 0,0 C 51 % 88 % 0 % 1018,5 hPa 0,0 l/m 0,0 km/h (0 Bft) 0 min 0 min 0,0 km/h (0 Bft)
20.11.2011 04:48 15,6 C 3,2 C 0,0 UV-I 0,0 C 51 % 88 % 0 % 1018,5 hPa 0,0 l/m 0,0 km/h (0 Bft) 0 min 0 min 0,0 km/h (0 Bft)
20.11.2011 04:50 15,6 C 3,2 C 0,0 UV-I 0,0 C 51 % 88 % 0 % 1018,5 hPa 0,0 l/m 0,0 km/h (0 Bft) 0 min 0 min 0,0 km/h (0 Bft)
20.11.2011 04:52 15,6 C 3,2 C 0,0 UV-I 0,0 C 51 % 88 % 0 % 1018,5 hPa 0,0 l/m 0,0 km/h (0 Bft) 0 min 0 min 0,0 km/h (0 Bft)
20.11.2011 04:54 15,6 C 3,1 C 0,0 UV-I 0,0 C 51 % 88 % 0 % 1018,5 hPa 0,0 l/m 0,0 km/h (0 Bft) 0 min 0 min 0,0 km/h (0 Bft)
20.11.2011 04:56 15,6 C 3,1 C 0,0 UV-I 0,0 C 51 % 88 % 0 % 1018,5 hPa 0,0 l/m 0,0 km/h (0 Bft) 0 min 2 min 0,0 km/h (0 Bft)
20.11.2011 04:58 15,6 C 3,0 C 0,0 UV-I 0,0 C 51 % 88 % 0 % 1018,5 hPa 0,0 l/m 0,0 km/h (0 Bft) 0 min 0 min 0,0 km/h (0 Bft)
20.11.2011 05:00 15,6 C 2,9 C 0,0 UV-I 0,0 C 51 % 88 % 0 % 1018,5 hPa 0,0 l/m 0,0 km/h (0 Bft) 0 min 0 min 0,0 km/h (0 Bft)
20.11.2011 05:02 15,6 C 2,9 C 0,0 UV-I 0,0 C 51 % 88 % 0 % 1018,5 hPa 0,0 l/m 0,0 km/h (0 Bft) 0 min 0 min 0,0 km/h (0 Bft)
20.11.2011 05:04 15,6 C 2,8 C 0,0 UV-I 0,0 C 51 % 88 % 0 % 1018,5 hPa 0,0 l/m 0,0 km/h (0 Bft) 0 min 0 min 0,0 km/h (0 Bft)
20.11.2011 05:06 15,6 C 2,8 C 0,0 UV-I 0,0 C 51 % 88 % 0 % 1018,4 hPa 0,0 l/m 0,0 km/h (0 Bft) 0 min 0 min 0,0 km/h (0 Bft)
20.11.2011 05:08 15,4 C 2,8 C 0,0 UV-I 0,0 C 51 % 88 % 0 % 1018,4 hPa 0,0 l/m 0,0 km/h (0 Bft) 0 min 0 min 0,0 km/h (0 Bft)
20.11.2011 05:10 15,6 C 2,8 C 0,0 UV-I 0,0 C 51 % 88 % 0 % 1018,4 hPa 0,0 l/m 0,0 km/h (0 Bft) 0 min 0 min 0,0 km/h (0 Bft)
20.11.2011 05:12 15,4 C 2,7 C 0,0 UV-I 0,0 C 51 % 88 % 0 % 1018,4 hPa 0,0 l/m 0,0 km/h (0 Bft) 0 min 0 min 0,0 km/h (0 Bft)
20.11.2011 05:14 15,4 C 2,7 C 0,0 UV-I 0,0 C 51 % 88 % 0 % 1018,4 hPa 0,0 l/m 0,0 km/h (0 Bft) 0 min 0 min 0,0 km/h (0 Bft)
20.11.2011 05:16 15,4 C 2,6 C 0,0 UV-I 0,0 C 51 % 88 % 0 % 1018,4 hPa 0,0 l/m 0,0 km/h (0 Bft) 0 min 0 min 0,0 km/h (0 Bft)
20.11.2011 05:18 15,4 C 2,7 C 0,0 UV-I 0,0 C 51 % 88 % 0 % 1018,4 hPa 0,0 l/m 0,0 km/h (0 Bft) 0 min 0 min 0,0 km/h (0 Bft)
20.11.2011 05:20 15,4 C 2,7 C 0,0 UV-I 0,0 C 51 % 88 % 0 % 1018,4 hPa 0,0 l/m 0,0 km/h (0 Bft) 0 min 0 min 0,0 km/h (0 Bft)
20.11.2011 05:22 15,4 C 2,5 C 0,0 UV-I 0,0 C 51 % 88 % 0 % 1018,4 hPa 0,0 l/m 0,0 km/h (0 Bft) 0 min 0 min 0,0 km/h (0 Bft)
20.11.2011 05:24 15,5 C 2,5 C 0,0 UV-I 0,0 C 51 % 88 % 0 % 1018,4 hPa 0,0 l/m 0,0 km/h (0 Bft) 0 min 0 min 0,0 km/h (0 Bft)
20.11.2011 05:26 15,5 C 2,4 C 0,0 UV-I 0,0 C 51 % 88 % 0 % 1018,4 hPa 0,0 l/m 0,0 km/h (0 Bft) 0 min 0 min 0,0 km/h (0 Bft)
20.11.2011 05:28 15,5 C 2,4 C 0,0 UV-I 0,0 C 51 % 88 % 0 % 1018,4 hPa 0,0 l/m 0,0 km/h (0 Bft) 0 min 0 min 0,0 km/h (0 Bft)
20.11.2011 05:30 15,5 C 2,4 C 0,0 UV-I 0,0 C 51 % 88 % 0 % 1018,4 hPa 0,0 l/m 0,0 km/h (0 Bft) 0 min 0 min 0,0 km/h (0 Bft)
20.11.2011 05:32 15,5 C 2,4 C 0,0 UV-I 0,0 C 51 % 89 % 0 % 1018,4 hPa 0,0 l/m 0,0 km/h (0 Bft) 0 min 0 min 0,0 km/h (0 Bft)
20.11.2011 05:34 15,5 C 2,4 C 0,0 UV-I 0,0 C 51 % 89 % 0 % 1018,4 hPa 0,0 l/m 0,0 km/h (0 Bft) 0 min 0 min 0,0 km/h (0 Bft)
20.11.2011 05:36 15,5 C 2,3 C 0,0 UV-I 0,0 C 51 % 89 % 0 % 1018,4 hPa 0,0 l/m 0,0 km/h (0 Bft) 0 min 0 min 0,0 km/h (0 Bft)
20.11.2011 05:38 15,5 C 2,3 C 0,0 UV-I 0,0 C 51 % 89 % 0 % 1018,4 hPa 0,0 l/m 0,0 km/h (0 Bft) 0 min 0 min 0,0 km/h (0 Bft)
20.11.2011 05:40 15,5 C 2,3 C 0,0 UV-I 0,0 C 51 % 89 % 0 % 1018,4 hPa 0,0 l/m 0,0 km/h (0 Bft) 0 min 0 min 0,0 km/h (0 Bft)
20.11.2011 05:42 15,5 C 2,2 C 0,0 UV-I 0,0 C 51 % 89 % 0 % 1018,4 hPa 0,0 l/m 0,0 km/h (0 Bft) 0 min 0 min 0,0 km/h (0 Bft)
20.11.2011 05:44 15,5 C 2,2 C 0,0 UV-I 0,0 C 51 % 89 % 0 % 1018,4 hPa 0,0 l/m 0,0 km/h (0 Bft) 0 min 0 min 0,0 km/h (0 Bft)
20.11.2011 05:46 15,5 C 2,3 C 0,0 UV-I 0,0 C 51 % 89 % 0 % 1018,6 hPa 0,0 l/m 0,0 km/h (0 Bft) 0 min 0 min 0,0 km/h (0 Bft)
20.11.2011 05:48 15,5 C 2,3 C 0,0 UV-I 0,0 C 51 % 89 % 0 % 1018,6 hPa 0,0 l/m 0,0 km/h (0 Bft) 0 min 0 min 0,0 km/h (0 Bft)
20.11.2011 05:50 15,5 C 2,3 C 0,0 UV-I 0,0 C 51 % 89 % 0 % 1018,6 hPa 0,0 l/m 0,0 km/h (0 Bft) 0 min 0 min 0,0 km/h (0 Bft)
20.11.2011 05:52 15,5 C 2,3 C 0,0 UV-I 0,0 C 51 % 89 % 0 % 1018,6 hPa 0,0 l/m 0,0 km/h (0 Bft) 0 min 0 min 0,0 km/h (0 Bft)
20.11.2011 05:54 15,5 C 2,3 C 0,0 UV-I 0,0 C 51 % 89 % 0 % 1018,6 hPa 0,0 l/m 0,0 km/h (0 Bft) 0 min 0 min 0,0 km/h (0 Bft)
20.11.2011 05:56 15,5 C 2,2 C 0,0 UV-I 0,0 C 51 % 89 % 0 % 1018,6 hPa 0,0 l/m 0,0 km/h (0 Bft) 0 min 2 min 0,0 km/h (0 Bft)
20.11.2011 05:58 15,3 C 2,3 C 0,0 UV-I 0,0 C 51 % 89 % 0 % 1018,6 hPa 0,0 l/m 0,0 km/h (0 Bft) 0 min 0 min 0,0 km/h (0 Bft)
20.11.2011 06:00 15,3 C 2,2 C 0,0 UV-I 0,0 C 51 % 89 % 0 % 1018,6 hPa 0,0 l/m 0,0 km/h (0 Bft) 0 min 0 min 0,0 km/h (0 Bft)
20.11.2011 06:02 15,5 C 2,2 C 0,0 UV-I 0,0 C 51 % 89 % 0 % 1018,6 hPa 0,0 l/m 0,0 km/h (0 Bft) 0 min 0 min 0,0 km/h (0 Bft)
20.11.2011 06:04 15,3 C 2,2 C 0,0 UV-I 0,0 C 50 % 89 % 0 % 1018,6 hPa 0,0 l/m 0,0 km/h (0 Bft) 0 min 0 min 0,0 km/h (0 Bft)
20.11.2011 06:06 15,5 C 2,1 C 0,0 UV-I 0,0 C 50 % 89 % 0 % 1018,2 hPa 0,0 l/m 0,0 km/h (0 Bft) 0 min 0 min 0,0 km/h (0 Bft)
20.11.2011 06:08 15,3 C 2,1 C 0,0 UV-I 0,0 C 50 % 89 % 0 % 1018,2 hPa 0,0 l/m 0,0 km/h (0 Bft) 0 min 0 min 0,0 km/h (0 Bft)
20.11.2011 06:10 15,3 C 2,1 C 0,0 UV-I 0,0 C 51 % 89 % 0 % 1018,2 hPa 0,0 l/m 0,0 km/h (0 Bft) 0 min 0 min 0,0 km/h (0 Bft)
20.11.2011 06:12 15,3 C 2,1 C 0,0 UV-I 0,0 C 50 % 89 % 0 % 1018,2 hPa 0,0 l/m 0,0 km/h (0 Bft) 0 min 0 min 0,0 km/h (0 Bft)
20.11.2011 06:14 15,3 C 2,1 C 0,0 UV-I 0,0 C 50 % 89 % 0 % 1018,2 hPa 0,0 l/m 0,0 km/h (0 Bft) 0 min 0 min 0,0 km/h (0 Bft)
20.11.2011 06:16 15,3 C 2,1 C 0,0 UV-I 0,0 C 50 % 89 % 0 % 1018,2 hPa 0,0 l/m 0,0 km/h (0 Bft) 0 min 0 min 0,0 km/h (0 Bft)
20.11.2011 06:18 15,3 C 2,1 C 0,0 UV-I 0,0 C 50 % 89 % 0 % 1018,2 hPa 0,0 l/m 0,0 km/h (0 Bft) 0 min 0 min 0,0 km/h (0 Bft)
20.11.2011 06:20 15,3 C 2,1 C 0,0 UV-I 0,0 C 50 % 89 % 0 % 1018,2 hPa 0,0 l/m 0,0 km/h (0 Bft) 0 min 0 min 0,0 km/h (0 Bft)
20.11.2011 06:22 15,3 C 2,1 C 0,0 UV-I 0,0 C 51 % 89 % 0 % 1018,2 hPa 0,0 l/m 0,0 km/h (0 Bft) 0 min 0 min 0,0 km/h (0 Bft)
20.11.2011 06:24 15,4 C 2,1 C 0,0 UV-I 0,0 C 51 % 89 % 0 % 1018,2 hPa 0,0 l/m 0,0 km/h (0 Bft) 0 min 0 min 0,0 km/h (0 Bft)
20.11.2011 06:26 15,4 C 2,2 C 0,0 UV-I 0,0 C 50 % 89 % 0 % 1018,4 hPa 0,0 l/m 0,0 km/h (0 Bft) 0 min 0 min 0,0 km/h (0 Bft)
20.11.2011 06:28 15,4 C 2,3 C 0,0 UV-I 0,0 C 51 % 90 % 0 % 1018,4 hPa 0,0 l/m 0,0 km/h (0 Bft) 0 min 0 min 0,0 km/h (0 Bft)
20.11.2011 06:30 15,4 C 2,3 C 0,0 UV-I 0,0 C 51 % 90 % 0 % 1018,4 hPa 0,0 l/m 0,0 km/h (0 Bft) 0 min 0 min 0,0 km/h (0 Bft)
20.11.2011 06:32 15,3 C 2,3 C 0,0 UV-I 0,0 C 51 % 90 % 0 % 1018,4 hPa 0,0 l/m 0,0 km/h (0 Bft) 0 min 0 min 0,0 km/h (0 Bft)
20.11.2011 06:34 15,4 C 2,3 C 0,0 UV-I 0,0 C 50 % 90 % 0 % 1018,4 hPa 0,0 l/m 0,0 km/h (0 Bft) 0 min 0 min 0,0 km/h (0 Bft)
20.11.2011 06:36 15,4 C 2,2 C 0,0 UV-I 0,0 C 50 % 90 % 0 % 1018,4 hPa 0,0 l/m 0,0 km/h (0 Bft) 0 min 0 min 0,0 km/h (0 Bft)
20.11.2011 06:38 15,4 C 2,2 C 0,0 UV-I 0,0 C 50 % 90 % 0 % 1018,4 hPa 0,0 l/m 0,0 km/h (0 Bft) 0 min 0 min 0,0 km/h (0 Bft)
20.11.2011 06:40 15,4 C 2,2 C 0,0 UV-I 0,0 C 50 % 90 % 0 % 1018,4 hPa 0,0 l/m 0,0 km/h (0 Bft) 0 min 0 min 0,0 km/h (0 Bft)
20.11.2011 06:42 15,4 C 2,3 C 0,0 UV-I 0,0 C 50 % 90 % 0 % 1018,4 hPa 0,0 l/m 0,0 km/h (0 Bft) 0 min 0 min 0,0 km/h (0 Bft)
20.11.2011 06:44 15,4 C 2,3 C 0,0 UV-I 0,0 C 50 % 90 % 0 % 1018,4 hPa 0,0 l/m 0,0 km/h (0 Bft) 0 min 0 min 0,0 km/h (0 Bft)
20.11.2011 06:46 15,4 C 2,3 C 0,0 UV-I 0,0 C 50 % 90 % 0 % 1018,4 hPa 0,0 l/m 0,0 km/h (0 Bft) 0 min 0 min 0,0 km/h (0 Bft)
20.11.2011 06:48 15,4 C 2,3 C 0,0 UV-I 0,0 C 50 % 90 % 0 % 1018,4 hPa 0,0 l/m 0,0 km/h (0 Bft) 0 min 0 min 0,0 km/h (0 Bft)
20.11.2011 06:50 15,4 C 2,3 C 0,0 UV-I 0,0 C 50 % 90 % 0 % 1018,4 hPa 0,0 l/m 0,0 km/h (0 Bft) 0 min 0 min 0,0 km/h (0 Bft)
20.11.2011 06:52 15,4 C 2,3 C 0,0 UV-I 0,0 C 50 % 90 % 0 % 1018,4 hPa 0,0 l/m 0,0 km/h (0 Bft) 0 min 0 min 0,0 km/h (0 Bft)
20.11.2011 06:54 15,4 C 2,3 C 0,0 UV-I 0,0 C 50 % 90 % 0 % 1018,4 hPa 0,0 l/m 0,0 km/h (0 Bft) 0 min 0 min 0,0 km/h (0 Bft)
20.11.2011 06:56 15,4 C 2,3 C 0,0 UV-I 0,0 C 50 % 90 % 0 % 1018,4 hPa 0,0 l/m 0,0 km/h (0 Bft) 0 min 0 min 0,0 km/h (0 Bft)
20.11.2011 06:58 15,4 C 2,3 C 0,0 UV-I 0,0 C 50 % 90 % 0 % 1018,4 hPa 0,0 l/m 0,0 km/h (0 Bft) 0 min 0 min 0,0 km/h (0 Bft)
20.11.2011 07:00 15,4 C 2,3 C 0,0 UV-I 0,0 C 50 % 90 % 0 % 1018,4 hPa 0,0 l/m 0,0 km/h (0 Bft) 0 min 0 min 0,0 km/h (0 Bft)
20.11.2011 07:02 15,4 C 2,3 C 0,0 UV-I 0,0 C 50 % 90 % 0 % 1018,4 hPa 0,0 l/m 0,0 km/h (0 Bft) 0 min 0 min 0,0 km/h (0 Bft)
20.11.2011 07:04 15,4 C 2,2 C 0,0 UV-I 0,0 C 50 % 90 % 0 % 1018,4 hPa 0,0 l/m 0,0 km/h (0 Bft) 0 min 0 min 0,0 km/h (0 Bft)
20.11.2011 07:06 15,4 C 2,1 C 0,0 UV-I 0,0 C 50 % 90 % 0 % 1018,4 hPa 0,0 l/m 0,0 km/h (0 Bft) 0 min 0 min 0,0 km/h (0 Bft)
20.11.2011 07:08 15,4 C 2,2 C 0,0 UV-I 0,0 C 50 % 90 % 0 % 1018,4 hPa 0,0 l/m 0,0 km/h (0 Bft) 0 min 0 min 0,0 km/h (0 Bft)
20.11.2011 07:10 15,4 C 2,1 C 0,0 UV-I 0,0 C 50 % 90 % 0 % 1018,4 hPa 0,0 l/m 0,0 km/h (0 Bft) 0 min 0 min 0,0 km/h (0 Bft)
20.11.2011 07:12 15,4 C 2,1 C 0,0 UV-I 0,0 C 50 % 90 % 0 % 1018,4 hPa 0,0 l/m 0,0 km/h (0 Bft) 0 min 0 min 0,0 km/h (0 Bft)
20.11.2011 07:14 15,4 C 2,1 C 0,0 UV-I 0,0 C 50 % 90 % 0 % 1018,4 hPa 0,0 l/m 0,0 km/h (0 Bft) 0 min 0 min 0,0 km/h (0 Bft)
20.11.2011 07:16 15,4 C 2,1 C 0,0 UV-I 0,0 C 50 % 90 % 0 % 1018,4 hPa 0,0 l/m 0,0 km/h (0 Bft) 0 min 0 min 0,0 km/h (0 Bft)
20.11.2011 07:18 15,4 C 2,1 C 0,0 UV-I 0,0 C 50 % 90 % 0 % 1018,4 hPa 0,0 l/m 0,0 km/h (0 Bft) 0 min 0 min 0,0 km/h (0 Bft)
20.11.2011 07:20 15,4 C 2,1 C 0,0 UV-I 0,0 C 50 % 90 % 0 % 1018,4 hPa 0,0 l/m 0,0 km/h (0 Bft) 0 min 0 min 0,0 km/h (0 Bft)
20.11.2011 07:22 15,4 C 2,1 C 0,0 UV-I 0,0 C 50 % 90 % 0 % 1018,4 hPa 0,0 l/m 0,0 km/h (0 Bft) 0 min 0 min 0,0 km/h (0 Bft)
20.11.2011 07:24 15,4 C 2,0 C 0,0 UV-I 0,0 C 50 % 90 % 0 % 1018,4 hPa 0,0 l/m 0,0 km/h (0 Bft) 0 min 0 min 0,0 km/h (0 Bft)
20.11.2011 07:26 15,2 C 2,0 C 0,0 UV-I 0,0 C 50 % 90 % 0 % 1018,4 hPa 0,0 l/m 0,0 km/h (0 Bft) 0 min 0 min 0,0 km/h (0 Bft)
20.11.2011 07:28 15,4 C 2,1 C 0,0 UV-I 0,0 C 50 % 90 % 0 % 1018,4 hPa 0,0 l/m 0,0 km/h (0 Bft) 0 min 2 min 0,0 km/h (0 Bft)
20.11.2011 07:30 15,2 C 2,1 C 0,0 UV-I 0,0 C 50 % 90 % 0 % 1018,4 hPa 0,0 l/m 0,0 km/h (0 Bft) 0 min 0 min 0,0 km/h (0 Bft)
20.11.2011 07:32 15,4 C 2,1 C 0,0 UV-I 0,0 C 50 % 90 % 0 % 1018,4 hPa 0,0 l/m 0,0 km/h (0 Bft) 0 min 0 min 0,0 km/h (0 Bft)
20.11.2011 07:34 15,2 C 2,1 C 0,0 UV-I 0,0 C 50 % 90 % 0 % 1018,4 hPa 0,0 l/m 0,0 km/h (0 Bft) 0 min 0 min 0,0 km/h (0 Bft)
20.11.2011 07:36 15,2 C 2,2 C 0,0 UV-I 0,0 C 50 % 90 % 0 % 1018,4 hPa 0,0 l/m 0,0 km/h (0 Bft) 0 min 0 min 0,0 km/h (0 Bft)
20.11.2011 07:38 15,2 C 2,3 C 0,0 UV-I 0,0 C 50 % 90 % 0 % 1018,4 hPa 0,0 l/m 0,0 km/h (0 Bft) 0 min 0 min 0,0 km/h (0 Bft)
20.11.2011 07:40 15,2 C 2,2 C 0,0 UV-I 0,0 C 50 % 90 % 0 % 1018,4 hPa 0,0 l/m 0,0 km/h (0 Bft) 0 min 0 min 0,0 km/h (0 Bft)
20.11.2011 07:42 15,2 C 2,3 C 0,0 UV-I 0,0 C 50 % 90 % 0 % 1018,4 hPa 0,0 l/m 0,0 km/h (0 Bft) 0 min 0 min 0,0 km/h (0 Bft)
20.11.2011 07:44 15,4 C 2,3 C 0,0 UV-I 0,0 C 50 % 90 % 0 % 1018,4 hPa 0,0 l/m 0,0 km/h (0 Bft) 0 min 0 min 0,0 km/h (0 Bft)
20.11.2011 07:46 15,2 C 2,3 C 0,0 UV-I 0,0 C 50 % 90 % 0 % 1018,8 hPa 0,0 l/m 0,0 km/h (0 Bft) 0 min 0 min 0,0 km/h (0 Bft)
20.11.2011 07:48 15,2 C 2,3 C 0,0 UV-I 0,0 C 50 % 90 % 0 % 1018,8 hPa 0,0 l/m 0,0 km/h (0 Bft) 0 min 0 min 0,0 km/h (0 Bft)
20.11.2011 07:50 15,2 C 2,1 C 0,0 UV-I 0,0 C 50 % 90 % 0 % 1018,8 hPa 0,0 l/m 0,0 km/h (0 Bft) 0 min 0 min 0,0 km/h (0 Bft)
20.11.2011 07:52 15,2 C 2,1 C 0,0 UV-I 0,0 C 50 % 90 % 0 % 1018,8 hPa 0,0 l/m 0,0 km/h (0 Bft) 0 min 0 min 0,0 km/h (0 Bft)
20.11.2011 07:54 15,3 C 2,1 C 0,0 UV-I 0,0 C 50 % 90 % 0 % 1018,8 hPa 0,0 l/m 0,0 km/h (0 Bft) 0 min 0 min 0,0 km/h (0 Bft)
20.11.2011 07:56 15,2 C 2,1 C 0,0 UV-I 0,0 C 50 % 90 % 0 % 1018,8 hPa 0,0 l/m 0,0 km/h (0 Bft) 0 min 0 min 0,0 km/h (0 Bft)
20.11.2011 07:58 15,2 C 2,1 C 0,0 UV-I 0,0 C 50 % 90 % 0 % 1018,8 hPa 0,0 l/m 0,0 km/h (0 Bft) 0 min 0 min 0,0 km/h (0 Bft)
20.11.2011 08:00 15,2 C 2,2 C 0,0 UV-I 0,0 C 50 % 90 % 0 % 1018,8 hPa 0,0 l/m 0,0 km/h (0 Bft) 0 min 0 min 0,0 km/h (0 Bft)
20.11.2011 08:02 15,2 C 2,1 C 0,0 UV-I 0,0 C 50 % 90 % 0 % 1018,8 hPa 0,0 l/m 0,0 km/h (0 Bft) 0 min 0 min 0,0 km/h (0 Bft)
20.11.2011 08:04 15,2 C 2,3 C 0,0 UV-I 0,0 C 50 % 91 % 0 % 1018,8 hPa 0,0 l/m 0,0 km/h (0 Bft) 0 min 0 min 0,0 km/h (0 Bft)
20.11.2011 08:06 15,2 C 2,3 C 0,0 UV-I 0,0 C 50 % 91 % 0 % 1018,8 hPa 0,0 l/m 0,0 km/h (0 Bft) 0 min 0 min 0,0 km/h (0 Bft)
20.11.2011 08:08 15,2 C 2,3 C 0,0 UV-I 0,0 C 50 % 91 % 0 % 1018,8 hPa 0,0 l/m 0,0 km/h (0 Bft) 0 min 0 min 0,0 km/h (0 Bft)
20.11.2011 08:10 15,2 C 2,3 C 0,0 UV-I 0,0 C 50 % 91 % 0 % 1018,8 hPa 0,0 l/m 0,0 km/h (0 Bft) 0 min 0 min 0,0 km/h (0 Bft)
20.11.2011 08:12 15,3 C 2,3 C 0,0 UV-I 0,0 C 50 % 91 % 0 % 1018,8 hPa 0,0 l/m 0,0 km/h (0 Bft) 0 min 0 min 0,0 km/h (0 Bft)
20.11.2011 08:14 15,2 C 2,3 C 0,0 UV-I 0,0 C 50 % 91 % 0 % 1018,8 hPa 0,0 l/m 0,0 km/h (0 Bft) 0 min 0 min 0,0 km/h (0 Bft)
20.11.2011 08:16 15,3 C 2,3 C 0,0 UV-I 0,0 C 50 % 91 % 0 % 1018,8 hPa 0,0 l/m 0,0 km/h (0 Bft) 0 min 0 min 0,0 km/h (0 Bft)
20.11.2011 08:18 15,3 C 2,3 C 0,0 UV-I 0,0 C 50 % 91 % 0 % 1018,8 hPa 0,0 l/m 0,0 km/h (0 Bft) 0 min 0 min 0,0 km/h (0 Bft)
20.11.2011 08:20 15,3 C 2,3 C 0,0 UV-I 0,0 C 50 % 91 % 0 % 1018,8 hPa 0,0 l/m 0,0 km/h (0 Bft) 0 min 0 min 0,0 km/h (0 Bft)
20.11.2011 08:22 15,3 C 2,3 C 0,0 UV-I 0,0 C 50 % 91 % 0 % 1018,8 hPa 0,0 l/m 0,0 km/h (0 Bft) 0 min 0 min 0,0 km/h (0 Bft)
20.11.2011 08:24 15,3 C 2,4 C 0,0 UV-I 0,0 C 50 % 91 % 0 % 1018,8 hPa 0,0 l/m 0,0 km/h (0 Bft) 0 min 0 min 0,0 km/h (0 Bft)
20.11.2011 08:26 15,3 C 2,3 C 0,0 UV-I 0,0 C 50 % 91 % 0 % 1018,8 hPa 0,0 l/m 0,0 km/h (0 Bft) 0 min 0 min 0,0 km/h (0 Bft)
20.11.2011 08:28 15,3 C 2,3 C 0,0 UV-I 0,0 C 50 % 91 % 0 % 1018,8 hPa 0,0 l/m 0,0 km/h (0 Bft) 0 min 0 min 0,0 km/h (0 Bft)
20.11.2011 08:30 15,3 C 2,4 C 0,0 UV-I 0,0 C 50 % 91 % 0 % 1018,8 hPa 0,0 l/m 0,0 km/h (0 Bft) 0 min 0 min 0,0 km/h (0 Bft)
20.11.2011 08:32 15,3 C 2,4 C 0,0 UV-I 0,0 C 50 % 91 % 0 % 1018,8 hPa 0,0 l/m 0,0 km/h (0 Bft) 0 min 0 min 0,0 km/h (0 Bft)
20.11.2011 08:34 15,3 C 2,5 C 0,0 UV-I 0,0 C 50 % 91 % 0 % 1018,8 hPa 0,0 l/m 0,0 km/h (0 Bft) 0 min 0 min 0,0 km/h (0 Bft)
20.11.2011 08:36 15,2 C 2,5 C 0,0 UV-I 0,0 C 50 % 91 % 0 % 1018,8 hPa 0,0 l/m 0,0 km/h (0 Bft) 0 min 0 min 0,0 km/h (0 Bft)
20.11.2011 08:38 15,2 C 2,7 C 0,0 UV-I 0,0 C 50 % 91 % 0 % 1018,8 hPa 0,0 l/m 0,0 km/h (0 Bft) 0 min 0 min 0,0 km/h (0 Bft)
20.11.2011 08:40 15,2 C 2,6 C 0,0 UV-I 0,0 C 50 % 91 % 0 % 1018,8 hPa 0,0 l/m 0,0 km/h (0 Bft) 0 min 0 min 0,0 km/h (0 Bft)
20.11.2011 08:42 15,3 C 2,7 C 0,0 UV-I 0,0 C 50 % 91 % 0 % 1018,8 hPa 0,0 l/m 0,0 km/h (0 Bft) 0 min 0 min 0,0 km/h (0 Bft)
20.11.2011 08:44 15,2 C 2,7 C 0,0 UV-I 0,0 C 50 % 91 % 0 % 1018,8 hPa 0,0 l/m 0,0 km/h (0 Bft) 0 min 0 min 0,0 km/h (0 Bft)
20.11.2011 08:46 15,2 C 2,8 C 0,0 UV-I 0,0 C 50 % 91 % 0 % 1019,1 hPa 0,0 l/m 0,0 km/h (0 Bft) 0 min 0 min 0,0 km/h (0 Bft)
20.11.2011 08:48 15,2 C 2,9 C 0,0 UV-I 0,0 C 50 % 91 % 0 % 1019,1 hPa 0,0 l/m 0,0 km/h (0 Bft) 0 min 0 min 0,0 km/h (0 Bft)
20.11.2011 08:50 15,2 C 2,8 C 0,0 UV-I 0,0 C 50 % 91 % 0 % 1019,1 hPa 0,0 l/m 0,0 km/h (0 Bft) 0 min 0 min 0,0 km/h (0 Bft)
20.11.2011 08:52 15,2 C 2,8 C 0,0 UV-I 0,0 C 50 % 91 % 0 % 1019,1 hPa 0,0 l/m 0,0 km/h (0 Bft) 0 min 0 min 0,0 km/h (0 Bft)
20.11.2011 08:54 15,2 C 2,9 C 0,0 UV-I 0,0 C 50 % 91 % 0 % 1019,1 hPa 0,0 l/m 0,0 km/h (0 Bft) 0 min 0 min 0,0 km/h (0 Bft)
20.11.2011 08:56 15,2 C 3,1 C 0,0 UV-I 0,0 C 50 % 91 % 0 % 1019,1 hPa 0,0 l/m 0,0 km/h (0 Bft) 0 min 0 min 0,0 km/h (0 Bft)
20.11.2011 08:58 15,2 C 3,0 C 0,0 UV-I 0,0 C 50 % 91 % 0 % 1019,1 hPa 0,0 l/m 0,0 km/h (0 Bft) 0 min 0 min 0,0 km/h (0 Bft)
20.11.2011 09:00 15,2 C 3,1 C 0,0 UV-I 0,0 C 50 % 91 % 0 % 1019,1 hPa 0,0 l/m 0,0 km/h (0 Bft) 0 min 0 min 0,0 km/h (0 Bft)
20.11.2011 09:02 15,4 C 3,1 C 0,0 UV-I 0,1 C 50 % 91 % 3 % 1019,1 hPa 0,0 l/m 0,0 km/h (0 Bft) 0 min 0 min 0,0 km/h (0 Bft)
20.11.2011 09:04 15,2 C 3,2 C 0,0 UV-I 0,2 C 50 % 91 % 6 % 1019,1 hPa 0,0 l/m 0,0 km/h (0 Bft) 0 min 0 min 0,0 km/h (0 Bft)
20.11.2011 09:06 15,2 C 3,2 C 0,0 UV-I 0,3 C 50 % 91 % 9 % 1019,2 hPa 0,0 l/m 0,0 km/h (0 Bft) 0 min 0 min 0,0 km/h (0 Bft)
20.11.2011 09:08 15,2 C 3,3 C 0,0 UV-I 0,3 C 50 % 92 % 9 % 1019,2 hPa 0,0 l/m 0,0 km/h (0 Bft) 0 min 2 min 0,0 km/h (0 Bft)
20.11.2011 09:10 15,2 C 3,3 C 0,0 UV-I 0,5 C 50 % 92 % 14 % 1019,2 hPa 0,0 l/m 0,0 km/h (0 Bft) 0 min 2 min 0,0 km/h (0 Bft)
20.11.2011 09:12 15,4 C 3,4 C 0,0 UV-I 0,6 C 50 % 92 % 17 % 1019,2 hPa 0,0 l/m 0,0 km/h (0 Bft) 0 min 0 min 0,0 km/h (0 Bft)
20.11.2011 09:14 15,2 C 3,5 C 0,0 UV-I 0,6 C 50 % 92 % 17 % 1019,2 hPa 0,0 l/m 0,0 km/h (0 Bft) 0 min 0 min 0,0 km/h (0 Bft)
20.11.2011 09:16 15,4 C 3,5 C 0,0 UV-I 0,7 C 50 % 92 % 20 % 1019,2 hPa 0,0 l/m 0,0 km/h (0 Bft) 0 min 0 min 0,0 km/h (0 Bft)
20.11.2011 09:18 15,2 C 3,7 C 0,0 UV-I 0,6 C 50 % 92 % 17 % 1019,2 hPa 0,0 l/m 0,0 km/h (0 Bft) 0 min 0 min 0,0 km/h (0 Bft)
20.11.2011 09:20 15,4 C 3,6 C 0,0 UV-I 0,9 C 50 % 92 % 26 % 1019,2 hPa 0,0 l/m 0,0 km/h (0 Bft) 0 min 0 min 0,0 km/h (0 Bft)
20.11.2011 09:22 15,4 C 3,8 C 0,0 UV-I 0,9 C 50 % 92 % 26 % 1019,2 hPa 0,0 l/m 0,0 km/h (0 Bft) 0 min 0 min 0,0 km/h (0 Bft)
20.11.2011 09:24 15,4 C 3,9 C 0,0 UV-I 0,8 C 50 % 92 % 23 % 1019,2 hPa 0,0 l/m 0,0 km/h (0 Bft) 0 min 0 min 0,0 km/h (0 Bft)
20.11.2011 09:26 15,4 C 3,9 C 0,0 UV-I 1,1 C 50 % 92 % 31 % 1019,2 hPa 0,0 l/m 0,0 km/h (0 Bft) 0 min 0 min 0,0 km/h (0 Bft)
20.11.2011 09:28 15,4 C 3,9 C 0,0 UV-I 1,6 C 50 % 92 % 46 % 1019,2 hPa 0,0 l/m 0,0 km/h (0 Bft) 2 min 0 min 0,0 km/h (0 Bft)
20.11.2011 09:30 15,4 C 4,0 C 0,0 UV-I 2,3 C 50 % 92 % 66 % 1019,2 hPa 0,0 l/m 0,0 km/h (0 Bft) 2 min 0 min 0,0 km/h (0 Bft)
20.11.2011 09:32 15,4 C 4,1 C 0,0 UV-I 2,8 C 51 % 92 % 80 % 1019,2 hPa 0,0 l/m 0,0 km/h (0 Bft) 2 min 0 min 0,0 km/h (0 Bft)
20.11.2011 09:34 15,4 C 4,2 C 0,0 UV-I 3,0 C 51 % 92 % 86 % 1019,2 hPa 0,0 l/m 0,0 km/h (0 Bft) 2 min 0 min 0,0 km/h (0 Bft)
20.11.2011 09:36 15,4 C 4,3 C 0,0 UV-I 3,4 C 51 % 92 % 97 % 1019,2 hPa 0,0 l/m 0,0 km/h (0 Bft) 2 min 0 min 0,0 km/h (0 Bft)
20.11.2011 09:38 15,3 C 4,4 C 0,0 UV-I 3,6 C 51 % 92 % 100 % 1019,2 hPa 0,0 l/m 0,0 km/h (0 Bft) 2 min 0 min 0,0 km/h (0 Bft)
20.11.2011 09:40 15,3 C 4,5 C 0,0 UV-I 3,9 C 51 % 92 % 100 % 1019,2 hPa 0,0 l/m 0,0 km/h (0 Bft) 2 min 0 min 0,0 km/h (0 Bft)
20.11.2011 09:42 15,3 C 4,5 C 0,0 UV-I 4,3 C 51 % 92 % 100 % 1019,2 hPa 0,0 l/m 0,0 km/h (0 Bft) 2 min 0 min 0,0 km/h (0 Bft)
20.11.2011 09:44 15,5 C 4,7 C 0,0 UV-I 4,4 C 51 % 92 % 100 % 1019,2 hPa 0,0 l/m 0,0 km/h (0 Bft) 2 min 0 min 0,0 km/h (0 Bft)
20.11.2011 09:46 15,5 C 4,6 C 0,0 UV-I 4,8 C 51 % 92 % 100 % 1019,4 hPa 0,0 l/m 0,0 km/h (0 Bft) 2 min 0 min 0,0 km/h (0 Bft)
20.11.2011 09:48 15,5 C 4,6 C 0,0 UV-I 5,0 C 51 % 92 % 100 % 1019,4 hPa 0,0 l/m 0,0 km/h (0 Bft) 2 min 0 min 0,0 km/h (0 Bft)
20.11.2011 09:50 15,5 C 4,7 C 0,0 UV-I 5,2 C 51 % 92 % 100 % 1019,4 hPa 0,0 l/m 0,0 km/h (0 Bft) 2 min 0 min 0,0 km/h (0 Bft)
20.11.2011 09:52 15,5 C 4,8 C 0,0 UV-I 5,4 C 51 % 92 % 100 % 1019,4 hPa 0,0 l/m 0,0 km/h (0 Bft) 2 min 0 min 0,0 km/h (0 Bft)
20.11.2011 09:54 15,4 C 4,9 C 0,0 UV-I 5,7 C 51 % 92 % 100 % 1019,4 hPa 0,0 l/m 0,0 km/h (0 Bft) 2 min 0 min 0,0 km/h (0 Bft)
20.11.2011 09:56 15,4 C 5,1 C 0,0 UV-I 5,7 C 51 % 92 % 100 % 1019,4 hPa 0,0 l/m 0,0 km/h (0 Bft) 2 min 0 min 0,0 km/h (0 Bft)
20.11.2011 09:58 15,4 C 5,1 C 0,0 UV-I 5,9 C 51 % 92 % 100 % 1019,4 hPa 0,0 l/m 0,0 km/h (0 Bft) 2 min 0 min 0,0 km/h (0 Bft)
20.11.2011 10:00 15,6 C 5,3 C 0,0 UV-I 6,0 C 51 % 92 % 100 % 1019,4 hPa 0,0 l/m 0,0 km/h (0 Bft) 2 min 0 min 0,0 km/h (0 Bft)
20.11.2011 10:02 15,6 C 5,3 C 0,0 UV-I 6,0 C 51 % 92 % 100 % 1019,4 hPa 0,0 l/m 0,0 km/h (0 Bft) 2 min 0 min 0,0 km/h (0 Bft)
20.11.2011 10:04 15,6 C 5,5 C 0,0 UV-I 6,0 C 51 % 92 % 100 % 1019,4 hPa 0,0 l/m 0,0 km/h (0 Bft) 2 min 0 min 0,0 km/h (0 Bft)
20.11.2011 10:06 15,6 C 5,5 C 0,0 UV-I 6,1 C 51 % 92 % 100 % 1019,2 hPa 0,0 l/m 0,0 km/h (0 Bft) 2 min 0 min 0,0 km/h (0 Bft)
20.11.2011 10:08 15,6 C 5,7 C 0,0 UV-I 6,1 C 51 % 92 % 100 % 1019,2 hPa 0,0 l/m 0,0 km/h (0 Bft) 2 min 0 min 0,0 km/h (0 Bft)
20.11.2011 10:10 15,6 C 5,7 C 0,0 UV-I 6,3 C 51 % 92 % 100 % 1019,2 hPa 0,0 l/m 0,0 km/h (0 Bft) 2 min 0 min 0,0 km/h (0 Bft)
20.11.2011 10:12 15,6 C 5,8 C 0,0 UV-I 6,3 C 51 % 92 % 100 % 1019,2 hPa 0,0 l/m 0,0 km/h (0 Bft) 2 min 0 min 0,0 km/h (0 Bft)
20.11.2011 10:14 15,6 C 6,1 C 0,1 UV-I 6,2 C 51 % 92 % 100 % 1019,2 hPa 0,0 l/m 0,4 km/h (0 Bft) 2 min 0 min 4,2 km/h (1 Bft)
20.11.2011 10:16 15,6 C 6,1 C 0,1 UV-I 6,3 C 51 % 92 % 100 % 1019,2 hPa 0,0 l/m 0,4 km/h (0 Bft) 2 min 0 min 0,0 km/h (0 Bft)
20.11.2011 10:18 15,6 C 6,3 C 0,1 UV-I 6,1 C 51 % 92 % 100 % 1019,2 hPa 0,0 l/m 0,8 km/h (0 Bft) 2 min 0 min 0,0 km/h (0 Bft)
20.11.2011 10:20 15,6 C 6,4 C 0,1 UV-I 6,3 C 51 % 92 % 100 % 1019,2 hPa 0,0 l/m 0,8 km/h (0 Bft) 2 min 0 min 3,5 km/h (1 Bft)
20.11.2011 10:22 15,6 C 6,4 C 0,1 UV-I 6,5 C 51 % 92 % 100 % 1019,2 hPa 0,0 l/m 1,2 km/h (1 Bft) 2 min 0 min 4,5 km/h (1 Bft)
20.11.2011 10:24 15,7 C 6,7 C 0,1 UV-I 6,2 C 51 % 92 % 100 % 1019,2 hPa 0,0 l/m 0,8 km/h (0 Bft) 2 min 0 min 0,0 km/h (0 Bft)
20.11.2011 10:26 15,7 C 6,7 C 0,1 UV-I 6,4 C 51 % 92 % 100 % 1018,8 hPa 0,0 l/m 0,8 km/h (0 Bft) 2 min 0 min 4,5 km/h (1 Bft)
20.11.2011 10:28 15,7 C 6,9 C 0,1 UV-I 6,4 C 51 % 92 % 100 % 1018,8 hPa 0,0 l/m 1,2 km/h (1 Bft) 2 min 0 min 3,5 km/h (1 Bft)
20.11.2011 10:30 15,7 C 6,9 C 0,2 UV-I 6,6 C 51 % 92 % 100 % 1018,8 hPa 0,0 l/m 1,6 km/h (1 Bft) 2 min 0 min 4,2 km/h (1 Bft)
20.11.2011 10:32 15,6 C 7,1 C 0,2 UV-I 6,5 C 51 % 92 % 100 % 1018,8 hPa 0,0 l/m 2,0 km/h (1 Bft) 2 min 0 min 5,1 km/h (1 Bft)
20.11.2011 10:34 15,6 C 7,2 C 0,2 UV-I 6,5 C 51 % 92 % 100 % 1018,8 hPa 0,0 l/m 2,0 km/h (1 Bft) 2 min 0 min 4,2 km/h (1 Bft)
20.11.2011 10:36 15,6 C 7,3 C 0,2 UV-I 6,6 C 51 % 92 % 100 % 1018,8 hPa 0,0 l/m 2,0 km/h (1 Bft) 2 min 0 min 0,0 km/h (0 Bft)
20.11.2011 10:38 15,6 C 7,5 C 0,2 UV-I 6,7 C 51 % 91 % 100 % 1018,8 hPa 0,0 l/m 2,0 km/h (1 Bft) 2 min 0 min 0,0 km/h (0 Bft)
20.11.2011 10:40 15,8 C 7,7 C 0,2 UV-I 6,6 C 51 % 91 % 100 % 1018,8 hPa 0,0 l/m 1,2 km/h (1 Bft) 2 min 0 min 0,0 km/h (0 Bft)
20.11.2011 10:42 15,8 C 7,7 C 0,2 UV-I 6,1 C 51 % 91 % 100 % 1018,8 hPa 0,0 l/m 0,8 km/h (0 Bft) 2 min 0 min 0,0 km/h (0 Bft)
20.11.2011 10:44 15,8 C 7,7 C 0,1 UV-I 5,5 C 51 % 91 % 100 % 1018,8 hPa 0,0 l/m 0,8 km/h (0 Bft) 2 min 0 min 0,0 km/h (0 Bft)
20.11.2011 10:46 15,8 C 7,8 C 0,1 UV-I 5,4 C 51 % 91 % 100 % 1019,6 hPa 0,0 l/m 0,4 km/h (0 Bft) 2 min 0 min 0,0 km/h (0 Bft)
20.11.2011 10:48 15,8 C 7,9 C 0,1 UV-I 5,6 C 51 % 91 % 100 % 1019,6 hPa 0,0 l/m 0,4 km/h (0 Bft) 2 min 0 min 0,0 km/h (0 Bft)
20.11.2011 10:50 15,8 C 8,1 C 0,2 UV-I 5,4 C 51 % 91 % 100 % 1019,6 hPa 0,0 l/m 0,4 km/h (0 Bft) 2 min 0 min 0,0 km/h (0 Bft)
20.11.2011 10:52 15,8 C 8,1 C 0,2 UV-I 5,4 C 51 % 90 % 100 % 1019,6 hPa 0,0 l/m 0,4 km/h (0 Bft) 2 min 0 min 4,2 km/h (1 Bft)
20.11.2011 10:54 15,8 C 8,2 C 0,1 UV-I 4,8 C 51 % 90 % 100 % 1019,6 hPa 0,0 l/m 0,4 km/h (0 Bft) 2 min 0 min 0,0 km/h (0 Bft)
20.11.2011 10:56 15,8 C 8,2 C 0,1 UV-I 4,7 C 51 % 90 % 100 % 1019,6 hPa 0,0 l/m 0,4 km/h (0 Bft) 2 min 0 min 0,0 km/h (0 Bft)
20.11.2011 10:58 15,8 C 8,3 C 0,1 UV-I 5,0 C 51 % 90 % 100 % 1019,6 hPa 0,0 l/m 0,4 km/h (0 Bft) 2 min 0 min 0,0 km/h (0 Bft)
20.11.2011 11:00 15,8 C 8,5 C 0,1 UV-I 5,2 C 51 % 90 % 100 % 1019,6 hPa 0,0 l/m 0,4 km/h (0 Bft) 2 min 0 min 0,0 km/h (0 Bft)
20.11.2011 11:02 15,8 C 8,5 C 0,1 UV-I 5,6 C 51 % 90 % 100 % 1019,6 hPa 0,0 l/m 0,8 km/h (0 Bft) 2 min 0 min 4,5 km/h (1 Bft)
20.11.2011 11:04 15,8 C 8,6 C 0,2 UV-I 5,8 C 51 % 90 % 100 % 1019,6 hPa 0,0 l/m 0,4 km/h (0 Bft) 2 min 0 min 0,0 km/h (0 Bft)
20.11.2011 11:06 15,8 C 8,8 C 0,2 UV-I 6,0 C 51 % 90 % 100 % 1019,6 hPa 0,0 l/m 0,4 km/h (0 Bft) 2 min 0 min 4,2 km/h (1 Bft)
20.11.2011 11:08 15,8 C 8,9 C 0,2 UV-I 6,0 C 51 % 90 % 100 % 1019,6 hPa 0,0 l/m 0,4 km/h (0 Bft) 2 min 0 min 0,0 km/h (0 Bft)
20.11.2011 11:10 15,8 C 9,1 C 0,3 UV-I 6,1 C 51 % 90 % 100 % 1019,6 hPa 0,0 l/m 1,2 km/h (1 Bft) 2 min 0 min 5,1 km/h (1 Bft)
20.11.2011 11:12 15,8 C 9,1 C 0,3 UV-I 6,1 C 51 % 89 % 100 % 1019,6 hPa 0,0 l/m 1,6 km/h (1 Bft) 2 min 0 min 0,0 km/h (0 Bft)
20.11.2011 11:14 15,8 C 9,2 C 0,2 UV-I 6,1 C 51 % 89 % 100 % 1019,6 hPa 0,0 l/m 1,2 km/h (1 Bft) 2 min 0 min 0,0 km/h (0 Bft)
20.11.2011 11:16 15,8 C 9,3 C 0,2 UV-I 6,2 C 51 % 89 % 100 % 1019,6 hPa 0,0 l/m 1,2 km/h (1 Bft) 2 min 0 min 0,0 km/h (0 Bft)
20.11.2011 11:18 15,9 C 9,3 C 0,2 UV-I 6,3 C 51 % 89 % 100 % 1019,6 hPa 0,0 l/m 1,2 km/h (1 Bft) 2 min 0 min 3,2 km/h (1 Bft)
20.11.2011 11:20 15,9 C 9,4 C 0,3 UV-I 6,2 C 51 % 88 % 100 % 1019,6 hPa 0,0 l/m 1,6 km/h (1 Bft) 2 min 0 min 0,0 km/h (0 Bft)
20.11.2011 11:22 15,9 C 9,6 C 0,3 UV-I 6,2 C 51 % 88 % 100 % 1019,6 hPa 0,0 l/m 1,2 km/h (1 Bft) 2 min 0 min 0,0 km/h (0 Bft)
20.11.2011 11:24 15,9 C 9,6 C 0,4 UV-I 6,4 C 51 % 88 % 100 % 1019,6 hPa 0,0 l/m 1,2 km/h (1 Bft) 2 min 0 min 0,0 km/h (0 Bft)
20.11.2011 11:26 15,9 C 9,7 C 0,4 UV-I 6,4 C 51 % 88 % 100 % 1019,4 hPa 0,0 l/m 2,4 km/h (1 Bft) 2 min 0 min 9,7 km/h (2 Bft)
20.11.2011 11:28 15,8 C 9,9 C 0,4 UV-I 6,2 C 51 % 88 % 100 % 1019,4 hPa 0,0 l/m 3,2 km/h (1 Bft) 2 min 0 min 9,0 km/h (2 Bft)
20.11.2011 11:30 15,8 C 9,9 C 0,4 UV-I 6,2 C 51 % 88 % 100 % 1019,4 hPa 0,0 l/m 3,2 km/h (1 Bft) 2 min 0 min 3,9 km/h (1 Bft)
20.11.2011 11:32 15,8 C 9,9 C 0,4 UV-I 6,1 C 51 % 88 % 100 % 1019,4 hPa 0,0 l/m 3,6 km/h (1 Bft) 2 min 0 min 9,7 km/h (2 Bft)
20.11.2011 11:34 16,0 C 10,0 C 0,5 UV-I 6,1 C 51 % 87 % 100 % 1019,4 hPa 0,0 l/m 3,6 km/h (1 Bft) 2 min 0 min 4,2 km/h (1 Bft)
20.11.2011 11:36 16,0 C 10,0 C 0,5 UV-I 6,3 C 51 % 87 % 100 % 1019,4 hPa 0,0 l/m 4,0 km/h (1 Bft) 2 min 0 min 3,2 km/h (1 Bft)
20.11.2011 11:38 16,0 C 10,2 C 0,5 UV-I 6,1 C 51 % 87 % 100 % 1019,4 hPa 0,0 l/m 3,2 km/h (1 Bft) 2 min 0 min 0,0 km/h (0 Bft)
20.11.2011 11:40 16,0 C 10,2 C 0,5 UV-I 6,2 C 51 % 87 % 100 % 1019,4 hPa 0,0 l/m 2,0 km/h (1 Bft) 2 min 0 min 0,0 km/h (0 Bft)
20.11.2011 11:42 16,0 C 10,4 C 0,5 UV-I 6,0 C 51 % 87 % 100 % 1019,4 hPa 0,0 l/m 1,2 km/h (1 Bft) 2 min 0 min 3,9 km/h (1 Bft)
20.11.2011 11:44 16,0 C 10,5 C 0,4 UV-I 5,8 C 51 % 86 % 100 % 1019,4 hPa 0,0 l/m 1,2 km/h (1 Bft) 2 min 0 min 0,0 km/h (0 Bft)
20.11.2011 11:46 16,0 C 10,5 C 0,4 UV-I 5,8 C 51 % 86 % 100 % 1019,3 hPa 0,0 l/m 1,2 km/h (1 Bft) 2 min 0 min 3,5 km/h (1 Bft)
20.11.2011 11:48 16,0 C 10,7 C 0,4 UV-I 5,7 C 51 % 86 % 100 % 1019,3 hPa 0,0 l/m 1,2 km/h (1 Bft) 2 min 0 min 0,0 km/h (0 Bft)
20.11.2011 11:50 16,0 C 10,7 C 0,5 UV-I 5,9 C 51 % 86 % 100 % 1019,3 hPa 0,0 l/m 1,2 km/h (1 Bft) 2 min 0 min 0,0 km/h (0 Bft)
20.11.2011 11:52 16,0 C 10,8 C 0,5 UV-I 6,0 C 51 % 85 % 100 % 1019,3 hPa 0,0 l/m 1,2 km/h (1 Bft) 2 min 0 min 4,2 km/h (1 Bft)
20.11.2011 11:54 15,9 C 10,8 C 0,6 UV-I 6,2 C 51 % 85 % 100 % 1019,3 hPa 0,0 l/m 1,2 km/h (1 Bft) 2 min 0 min 4,2 km/h (1 Bft)
20.11.2011 11:56 15,9 C 11,0 C 0,6 UV-I 6,4 C 52 % 84 % 100 % 1019,3 hPa 0,0 l/m 1,2 km/h (1 Bft) 2 min 0 min 0,0 km/h (0 Bft)
20.11.2011 11:58 15,9 C 11,0 C 0,6 UV-I 6,5 C 51 % 84 % 100 % 1019,3 hPa 0,0 l/m 0,4 km/h (0 Bft) 2 min 0 min 0,0 km/h (0 Bft)
20.11.2011 12:00 15,9 C 11,1 C 0,6 UV-I 6,7 C 51 % 82 % 100 % 1019,3 hPa 0,0 l/m 0,8 km/h (0 Bft) 2 min 0 min 0,0 km/h (0 Bft)
20.11.2011 12:02 15,9 C 11,1 C 0,6 UV-I 6,9 C 52 % 83 % 100 % 1019,3 hPa 0,0 l/m 0,8 km/h (0 Bft) 2 min 0 min 0,0 km/h (0 Bft)
20.11.2011 12:04 16,1 C 11,1 C 0,6 UV-I 6,9 C 52 % 83 % 100 % 1019,3 hPa 0,0 l/m 0,8 km/h (0 Bft) 2 min 0 min 0,0 km/h (0 Bft)
20.11.2011 12:06 16,1 C 11,2 C 0,6 UV-I 7,1 C 51 % 83 % 100 % 1018,9 hPa 0,0 l/m 0,4 km/h (0 Bft) 2 min 0 min 0,0 km/h (0 Bft)
20.11.2011 12:08 16,1 C 11,3 C 0,6 UV-I 7,2 C 52 % 83 % 100 % 1018,9 hPa 0,0 l/m 0,4 km/h (0 Bft) 2 min 0 min 0,0 km/h (0 Bft)
20.11.2011 12:10 16,1 C 11,4 C 0,6 UV-I 7,1 C 52 % 83 % 100 % 1018,9 hPa 0,0 l/m 0,4 km/h (0 Bft) 2 min 0 min 0,0 km/h (0 Bft)
20.11.2011 12:12 16,1 C 11,5 C 0,6 UV-I 7,3 C 52 % 83 % 100 % 1018,9 hPa 0,0 l/m 0,0 km/h (0 Bft) 2 min 0 min 0,0 km/h (0 Bft)
20.11.2011 12:14 16,1 C 11,7 C 0,6 UV-I 7,2 C 52 % 82 % 100 % 1018,9 hPa 0,0 l/m 0,0 km/h (0 Bft) 2 min 0 min 0,0 km/h (0 Bft)
20.11.2011 12:16 16,2 C 11,7 C 0,6 UV-I 7,3 C 52 % 82 % 100 % 1018,9 hPa 0,0 l/m 0,4 km/h (0 Bft) 2 min 0 min 0,0 km/h (0 Bft)
20.11.2011 12:18 16,1 C 11,9 C 0,6 UV-I 7,0 C 52 % 81 % 100 % 1018,9 hPa 0,0 l/m 0,4 km/h (0 Bft) 2 min 0 min 0,0 km/h (0 Bft)
20.11.2011 12:20 16,2 C 11,9 C 0,7 UV-I 7,1 C 52 % 81 % 100 % 1018,9 hPa 0,0 l/m 0,0 km/h (0 Bft) 2 min 0 min 0,0 km/h (0 Bft)
20.11.2011 12:22 16,2 C 12,0 C 0,7 UV-I 7,0 C 51 % 81 % 100 % 1018,9 hPa 0,0 l/m 0,4 km/h (0 Bft) 2 min 0 min 3,5 km/h (1 Bft)
20.11.2011 12:24 16,2 C 12,0 C 0,6 UV-I 6,9 C 52 % 80 % 100 % 1018,9 hPa 0,0 l/m 0,8 km/h (0 Bft) 2 min 0 min 3,5 km/h (1 Bft)
20.11.2011 12:26 16,2 C 12,0 C 0,6 UV-I 6,8 C 52 % 79 % 100 % 1018,9 hPa 0,0 l/m 0,8 km/h (0 Bft) 2 min 0 min 0,0 km/h (0 Bft)
20.11.2011 12:28 16,2 C 12,1 C 0,6 UV-I 6,6 C 52 % 78 % 100 % 1018,9 hPa 0,0 l/m 1,2 km/h (1 Bft) 2 min 0 min 0,0 km/h (0 Bft)
20.11.2011 12:30 16,2 C 12,2 C 0,6 UV-I 6,4 C 52 % 78 % 100 % 1018,9 hPa 0,0 l/m 0,8 km/h (0 Bft) 2 min 0 min 0,0 km/h (0 Bft)
20.11.2011 12:32 16,2 C 12,1 C 0,6 UV-I 6,6 C 51 % 78 % 100 % 1018,9 hPa 0,0 l/m 1,6 km/h (1 Bft) 2 min 0 min 3,5 km/h (1 Bft)
20.11.2011 12:34 16,2 C 12,1 C 0,6 UV-I 6,6 C 52 % 78 % 100 % 1018,9 hPa 0,0 l/m 1,2 km/h (1 Bft) 2 min 0 min 3,5 km/h (1 Bft)
20.11.2011 12:36 16,3 C 12,2 C 0,6 UV-I 6,5 C 51 % 78 % 100 % 1018,9 hPa 0,0 l/m 1,2 km/h (1 Bft) 2 min 0 min 0,0 km/h (0 Bft)
20.11.2011 12:38 16,2 C 12,3 C 0,6 UV-I 6,4 C 52 % 77 % 100 % 1018,9 hPa 0,0 l/m 0,8 km/h (0 Bft) 2 min 0 min 0,0 km/h (0 Bft)
20.11.2011 12:40 16,3 C 12,3 C 0,6 UV-I 6,4 C 52 % 77 % 100 % 1018,9 hPa 0,0 l/m 0,8 km/h (0 Bft) 2 min 0 min 0,0 km/h (0 Bft)
20.11.2011 12:42 16,3 C 12,2 C 0,6 UV-I 6,5 C 52 % 76 % 100 % 1018,9 hPa 0,0 l/m 1,2 km/h (1 Bft) 2 min 0 min 6,8 km/h (2 Bft)
20.11.2011 12:44 16,3 C 12,2 C 0,5 UV-I 6,6 C 51 % 77 % 100 % 1018,9 hPa 0,0 l/m 0,8 km/h (0 Bft) 2 min 0 min 0,0 km/h (0 Bft)
20.11.2011 12:46 16,3 C 12,3 C 0,5 UV-I 6,6 C 51 % 77 % 100 % 1019,1 hPa 0,0 l/m 1,2 km/h (1 Bft) 2 min 0 min 5,5 km/h (1 Bft)
20.11.2011 12:48 16,2 C 12,4 C 0,5 UV-I 6,3 C 52 % 76 % 100 % 1019,1 hPa 0,0 l/m 1,6 km/h (1 Bft) 2 min 0 min 0,0 km/h (0 Bft)
20.11.2011 12:50 16,2 C 12,4 C 0,6 UV-I 6,2 C 52 % 76 % 100 % 1019,1 hPa 0,0 l/m 1,6 km/h (1 Bft) 2 min 0 min 0,0 km/h (0 Bft)
20.11.2011 12:52 16,4 C 12,5 C 0,6 UV-I 6,2 C 52 % 75 % 100 % 1019,1 hPa 0,0 l/m 2,0 km/h (1 Bft) 2 min 0 min 0,0 km/h (0 Bft)
20.11.2011 12:54 16,4 C 12,4 C 0,5 UV-I 6,3 C 51 % 75 % 100 % 1019,1 hPa 0,0 l/m 2,0 km/h (1 Bft) 2 min 0 min 4,2 km/h (1 Bft)
20.11.2011 12:56 16,4 C 12,4 C 0,5 UV-I 6,2 C 52 % 75 % 100 % 1019,1 hPa 0,0 l/m 2,0 km/h (1 Bft) 2 min 0 min 0,0 km/h (0 Bft)
20.11.2011 12:58 16,4 C 12,5 C 0,5 UV-I 6,0 C 52 % 75 % 100 % 1019,1 hPa 0,0 l/m 1,2 km/h (1 Bft) 2 min 0 min 0,0 km/h (0 Bft)
20.11.2011 13:00 16,4 C 12,6 C 0,5 UV-I 6,0 C 52 % 75 % 100 % 1019,1 hPa 0,0 l/m 1,2 km/h (1 Bft) 2 min 0 min 0,0 km/h (0 Bft)
20.11.2011 13:02 16,4 C 12,7 C 0,5 UV-I 5,9 C 52 % 74 % 100 % 1019,1 hPa 0,0 l/m 1,2 km/h (1 Bft) 2 min 0 min 4,8 km/h (1 Bft)
20.11.2011 13:04 16,4 C 12,6 C 0,5 UV-I 6,1 C 52 % 74 % 100 % 1019,1 hPa 0,0 l/m 1,2 km/h (1 Bft) 2 min 0 min 0,0 km/h (0 Bft)
20.11.2011 13:06 16,5 C 12,7 C 0,5 UV-I 6,1 C 52 % 74 % 100 % 1018,8 hPa 0,0 l/m 0,8 km/h (0 Bft) 2 min 0 min 0,0 km/h (0 Bft)
20.11.2011 13:08 16,5 C 12,7 C 0,5 UV-I 6,2 C 52 % 72 % 100 % 1018,8 hPa 0,0 l/m 0,8 km/h (0 Bft) 2 min 0 min 3,5 km/h (1 Bft)
20.11.2011 13:10 16,5 C 12,7 C 0,5 UV-I 6,2 C 52 % 72 % 100 % 1018,8 hPa 0,0 l/m 0,8 km/h (0 Bft) 2 min 0 min 0,0 km/h (0 Bft)
20.11.2011 13:12 16,5 C 12,8 C 0,5 UV-I 5,9 C 52 % 72 % 100 % 1018,8 hPa 0,0 l/m 1,6 km/h (1 Bft) 2 min 0 min 5,8 km/h (2 Bft)
20.11.2011 13:14 16,5 C 12,8 C 0,5 UV-I 5,9 C 52 % 73 % 100 % 1018,8 hPa 0,0 l/m 1,6 km/h (1 Bft) 2 min 0 min 3,2 km/h (1 Bft)
20.11.2011 13:16 16,6 C 12,8 C 0,5 UV-I 5,9 C 52 % 72 % 100 % 1018,8 hPa 0,0 l/m 1,6 km/h (1 Bft) 2 min 0 min 4,2 km/h (1 Bft)
20.11.2011 13:18 16,6 C 12,9 C 0,5 UV-I 5,7 C 52 % 72 % 100 % 1018,8 hPa 0,0 l/m 1,6 km/h (1 Bft) 2 min 0 min 4,5 km/h (1 Bft)
20.11.2011 13:20 16,6 C 12,8 C 0,4 UV-I 5,8 C 52 % 72 % 100 % 1018,8 hPa 0,0 l/m 1,6 km/h (1 Bft) 2 min 0 min 3,5 km/h (1 Bft)
20.11.2011 13:22 16,7 C 12,8 C 0,4 UV-I 5,8 C 52 % 71 % 100 % 1018,8 hPa 0,0 l/m 2,0 km/h (1 Bft) 2 min 0 min 4,5 km/h (1 Bft)
20.11.2011 13:24 16,7 C 12,8 C 0,5 UV-I 5,9 C 52 % 71 % 100 % 1018,8 hPa 0,0 l/m 1,6 km/h (1 Bft) 2 min 0 min 7,7 km/h (2 Bft)
20.11.2011 13:26 16,8 C 12,9 C 0,5 UV-I 5,8 C 52 % 71 % 100 % 1019,1 hPa 0,0 l/m 2,0 km/h (1 Bft) 2 min 0 min 3,5 km/h (1 Bft)
20.11.2011 13:28 16,8 C 12,9 C 0,5 UV-I 5,8 C 52 % 71 % 100 % 1019,1 hPa 0,0 l/m 1,6 km/h (1 Bft) 2 min 0 min 0,0 km/h (0 Bft)
20.11.2011 13:30 16,8 C 13,0 C 0,5 UV-I 5,6 C 52 % 71 % 100 % 1019,1 hPa 0,0 l/m 1,2 km/h (1 Bft) 2 min 0 min 0,0 km/h (0 Bft)
20.11.2011 13:32 16,9 C 13,0 C 0,5 UV-I 5,7 C 52 % 70 % 100 % 1019,1 hPa 0,0 l/m 2,0 km/h (1 Bft) 2 min 0 min 0,0 km/h (0 Bft)
20.11.2011 13:34 17,0 C 13,1 C 0,6 UV-I 5,5 C 52 % 71 % 100 % 1019,1 hPa 0,0 l/m 2,0 km/h (1 Bft) 2 min 0 min 5,8 km/h (2 Bft)
20.11.2011 13:36 17,0 C 13,2 C 0,6 UV-I 5,4 C 52 % 70 % 100 % 1019,1 hPa 0,0 l/m 1,6 km/h (1 Bft) 2 min 0 min 4,5 km/h (1 Bft)
20.11.2011 13:38 17,1 C 13,3 C 0,6 UV-I 5,3 C 52 % 70 % 100 % 1019,1 hPa 0,0 l/m 2,4 km/h (1 Bft) 2 min 0 min 8,4 km/h (2 Bft)
20.11.2011 13:40 17,2 C 13,4 C 0,5 UV-I 5,0 C 52 % 70 % 100 % 1019,1 hPa 0,0 l/m 4,0 km/h (1 Bft) 2 min 0 min 4,5 km/h (1 Bft)
20.11.2011 13:42 17,2 C 13,4 C 0,5 UV-I 4,8 C 51 % 70 % 100 % 1019,1 hPa 0,0 l/m 4,4 km/h (1 Bft) 2 min 0 min 7,1 km/h (2 Bft)
20.11.2011 13:44 17,3 C 13,3 C 0,5 UV-I 4,7 C 51 % 70 % 100 % 1019,1 hPa 0,0 l/m 4,8 km/h (1 Bft) 2 min 0 min 4,8 km/h (1 Bft)
20.11.2011 13:46 17,2 C 13,3 C 0,5 UV-I 4,5 C 51 % 70 % 100 % 1019,6 hPa 0,0 l/m 5,2 km/h (1 Bft) 2 min 0 min 4,8 km/h (1 Bft)
20.11.2011 13:48 17,4 C 13,4 C 0,5 UV-I 4,3 C 51 % 71 % 100 % 1019,6 hPa 0,0 l/m 5,2 km/h (1 Bft) 2 min 0 min 4,8 km/h (1 Bft)
20.11.2011 13:50 17,5 C 13,5 C 0,5 UV-I 4,1 C 51 % 71 % 100 % 1019,6 hPa 0,0 l/m 4,0 km/h (1 Bft) 2 min 0 min 4,2 km/h (1 Bft)
20.11.2011 13:52 17,5 C 13,5 C 0,5 UV-I 4,2 C 51 % 71 % 100 % 1019,6 hPa 0,0 l/m 3,2 km/h (1 Bft) 2 min 0 min 0,0 km/h (0 Bft)
20.11.2011 13:54 17,6 C 13,5 C 0,5 UV-I 4,3 C 51 % 71 % 100 % 1019,6 hPa 0,0 l/m 2,4 km/h (1 Bft) 2 min 0 min 5,1 km/h (1 Bft)
20.11.2011 13:56 17,6 C 13,5 C 0,5 UV-I 4,3 C 51 % 71 % 100 % 1019,6 hPa 0,0 l/m 2,0 km/h (1 Bft) 2 min 0 min 4,2 km/h (1 Bft)
20.11.2011 13:58 17,6 C 13,6 C 0,5 UV-I 4,3 C 51 % 71 % 100 % 1019,6 hPa 0,0 l/m 2,4 km/h (1 Bft) 2 min 0 min 8,0 km/h (2 Bft)
20.11.2011 14:00 17,7 C 13,6 C 0,4 UV-I 4,2 C 51 % 71 % 100 % 1019,6 hPa 0,0 l/m 2,4 km/h (1 Bft) 2 min 0 min 0,0 km/h (0 Bft)
20.11.2011 14:02 17,8 C 13,7 C 0,4 UV-I 4,1 C 50 % 71 % 100 % 1019,6 hPa 0,0 l/m 2,4 km/h (1 Bft) 2 min 0 min 3,2 km/h (1 Bft)
20.11.2011 14:04 17,8 C 13,6 C 0,4 UV-I 4,2 C 50 % 71 % 100 % 1019,6 hPa 0,0 l/m 2,8 km/h (1 Bft) 2 min 0 min 5,8 km/h (2 Bft)
20.11.2011 14:06 17,9 C 13,7 C 0,4 UV-I 4,1 C 50 % 70 % 100 % 1019,2 hPa 0,0 l/m 3,2 km/h (1 Bft) 2 min 0 min 7,1 km/h (2 Bft)
20.11.2011 14:08 18,0 C 13,6 C 0,4 UV-I 4,1 C 50 % 70 % 100 % 1019,2 hPa 0,0 l/m 3,2 km/h (1 Bft) 2 min 0 min 0,0 km/h (0 Bft)
20.11.2011 14:10 18,0 C 13,6 C 0,4 UV-I 3,9 C 50 % 70 % 100 % 1019,2 hPa 0,0 l/m 2,4 km/h (1 Bft) 2 min 0 min 3,2 km/h (1 Bft)
20.11.2011 14:12 18,1 C 13,6 C 0,4 UV-I 3,9 C 50 % 70 % 100 % 1019,2 hPa 0,0 l/m 2,8 km/h (1 Bft) 2 min 0 min 5,5 km/h (1 Bft)
20.11.2011 14:14 18,2 C 13,7 C 0,4 UV-I 3,8 C 50 % 70 % 100 % 1019,2 hPa 0,0 l/m 3,6 km/h (1 Bft) 2 min 0 min 5,5 km/h (1 Bft)
20.11.2011 14:16 18,2 C 13,7 C 0,4 UV-I 3,8 C 50 % 70 % 100 % 1019,2 hPa 0,0 l/m 3,6 km/h (1 Bft) 2 min 0 min 6,1 km/h (2 Bft)
20.11.2011 14:18 18,3 C 13,7 C 0,4 UV-I 3,9 C 50 % 70 % 100 % 1019,2 hPa 0,0 l/m 2,8 km/h (1 Bft) 2 min 0 min 4,2 km/h (1 Bft)
20.11.2011 14:20 18,2 C 13,7 C 0,4 UV-I 3,9 C 50 % 70 % 100 % 1019,2 hPa 0,0 l/m 3,2 km/h (1 Bft) 2 min 0 min 4,2 km/h (1 Bft)
20.11.2011 14:22 18,4 C 13,7 C 0,4 UV-I 3,8 C 49 % 70 % 100 % 1019,2 hPa 0,0 l/m 4,0 km/h (1 Bft) 2 min 0 min 0,0 km/h (0 Bft)
20.11.2011 14:24 18,4 C 13,6 C 0,3 UV-I 3,9 C 49 % 70 % 100 % 1019,2 hPa 0,0 l/m 3,6 km/h (1 Bft) 2 min 0 min 6,4 km/h (2 Bft)
20.11.2011 14:26 18,5 C 13,6 C 0,3 UV-I 3,8 C 49 % 69 % 100 % 1019,2 hPa 0,0 l/m 3,2 km/h (1 Bft) 2 min 0 min 0,0 km/h (0 Bft)
20.11.2011 14:28 18,5 C 13,6 C 0,3 UV-I 3,5 C 49 % 69 % 100 % 1019,2 hPa 0,0 l/m 3,2 km/h (1 Bft) 2 min 0 min 4,5 km/h (1 Bft)
20.11.2011 14:30 18,5 C 13,5 C 0,2 UV-I 3,0 C 49 % 69 % 86 % 1019,2 hPa 0,0 l/m 3,6 km/h (1 Bft) 2 min 0 min 0,0 km/h (0 Bft)
20.11.2011 14:32 18,6 C 13,3 C 0,2 UV-I 2,9 C 49 % 69 % 83 % 1019,2 hPa 0,0 l/m 2,8 km/h (1 Bft) 2 min 0 min 0,0 km/h (0 Bft)
20.11.2011 14:34 18,6 C 13,3 C 0,2 UV-I 2,4 C 49 % 69 % 69 % 1019,2 hPa 0,0 l/m 2,8 km/h (1 Bft) 2 min 0 min 5,5 km/h (1 Bft)
20.11.2011 14:36 18,6 C 13,2 C 0,2 UV-I 2,3 C 48 % 69 % 66 % 1019,2 hPa 0,0 l/m 2,4 km/h (1 Bft) 2 min 0 min 3,9 km/h (1 Bft)
20.11.2011 14:38 18,6 C 13,1 C 0,2 UV-I 2,1 C 48 % 69 % 60 % 1019,2 hPa 0,0 l/m 2,0 km/h (1 Bft) 2 min 0 min 0,0 km/h (0 Bft)
20.11.2011 14:40 18,6 C 13,0 C 0,2 UV-I 2,1 C 48 % 70 % 60 % 1019,2 hPa 0,0 l/m 1,2 km/h (1 Bft) 2 min 0 min 3,5 km/h (1 Bft)
20.11.2011 14:42 18,6 C 13,1 C 0,2 UV-I 1,9 C 48 % 69 % 54 % 1019,2 hPa 0,0 l/m 1,2 km/h (1 Bft) 2 min 0 min 0,0 km/h (0 Bft)
20.11.2011 14:44 18,6 C 13,1 C 0,2 UV-I 1,9 C 48 % 70 % 54 % 1019,2 hPa 0,0 l/m 1,2 km/h (1 Bft) 2 min 0 min 3,2 km/h (1 Bft)
20.11.2011 14:46 18,7 C 13,0 C 0,2 UV-I 2,1 C 48 % 69 % 60 % 1019,1 hPa 0,0 l/m 1,2 km/h (1 Bft) 2 min 0 min 0,0 km/h (0 Bft)
20.11.2011 14:48 18,7 C 12,9 C 0,2 UV-I 2,2 C 48 % 69 % 63 % 1019,1 hPa 0,0 l/m 1,6 km/h (1 Bft) 2 min 0 min 4,2 km/h (1 Bft)
20.11.2011 14:50 18,8 C 12,8 C 0,1 UV-I 2,3 C 48 % 69 % 66 % 1019,1 hPa 0,0 l/m 2,0 km/h (1 Bft) 2 min 0 min 3,2 km/h (1 Bft)
20.11.2011 14:52 18,8 C 12,7 C 0,1 UV-I 2,5 C 48 % 69 % 71 % 1019,1 hPa 0,0 l/m 2,0 km/h (1 Bft) 2 min 0 min 0,0 km/h (0 Bft)
20.11.2011 14:54 18,8 C 12,6 C 0,1 UV-I 2,6 C 48 % 69 % 74 % 1019,1 hPa 0,0 l/m 2,0 km/h (1 Bft) 2 min 0 min 0,0 km/h (0 Bft)
20.11.2011 14:56 18,8 C 12,4 C 0,1 UV-I 3,0 C 48 % 69 % 86 % 1019,1 hPa 0,0 l/m 1,6 km/h (1 Bft) 2 min 0 min 4,2 km/h (1 Bft)
20.11.2011 14:58 18,9 C 12,3 C 0,1 UV-I 3,2 C 48 % 69 % 91 % 1019,1 hPa 0,0 l/m 1,6 km/h (1 Bft) 2 min 0 min 0,0 km/h (0 Bft)
20.11.2011 15:00 18,9 C 12,3 C 0,1 UV-I 3,3 C 48 % 70 % 94 % 1019,1 hPa 0,0 l/m 0,8 km/h (0 Bft) 2 min 0 min 0,0 km/h (0 Bft)
20.11.2011 15:02 18,9 C 12,3 C 0,1 UV-I 3,3 C 48 % 70 % 94 % 1019,1 hPa 0,0 l/m 0,4 km/h (0 Bft) 2 min 0 min 3,5 km/h (1 Bft)
20.11.2011 15:04 18,9 C 12,3 C 0,1 UV-I 3,3 C 48 % 70 % 94 % 1019,1 hPa 0,0 l/m 0,8 km/h (0 Bft) 2 min 0 min 3,9 km/h (1 Bft)
20.11.2011 15:06 18,9 C 12,1 C 0,1 UV-I 3,5 C 47 % 70 % 100 % 1019,1 hPa 0,0 l/m 1,2 km/h (1 Bft) 2 min 0 min 3,2 km/h (1 Bft)
20.11.2011 15:08 18,9 C 12,1 C 0,1 UV-I 3,4 C 47 % 71 % 97 % 1019,1 hPa 0,0 l/m 1,2 km/h (1 Bft) 2 min 0 min 5,5 km/h (1 Bft)
20.11.2011 15:10 18,9 C 12,0 C 0,0 UV-I 3,4 C 47 % 71 % 97 % 1019,1 hPa 0,0 l/m 1,6 km/h (1 Bft) 2 min 0 min 3,5 km/h (1 Bft)
20.11.2011 15:12 18,9 C 12,1 C 0,0 UV-I 2,8 C 47 % 71 % 80 % 1019,1 hPa 0,0 l/m 1,6 km/h (1 Bft) 2 min 0 min 0,0 km/h (0 Bft)
20.11.2011 15:14 18,9 C 12,1 C 0,0 UV-I 2,4 C 47 % 71 % 69 % 1019,1 hPa 0,0 l/m 1,6 km/h (1 Bft) 2 min 0 min 0,0 km/h (0 Bft)
20.11.2011 15:16 18,9 C 12,1 C 0,0 UV-I 2,0 C 47 % 71 % 57 % 1019,1 hPa 0,0 l/m 1,2 km/h (1 Bft) 2 min 0 min 0,0 km/h (0 Bft)
20.11.2011 15:18 18,9 C 12,0 C 0,0 UV-I 1,7 C 47 % 71 % 49 % 1019,1 hPa 0,0 l/m 1,2 km/h (1 Bft) 2 min 0 min 0,0 km/h (0 Bft)
20.11.2011 15:20 18,8 C 12,0 C 0,0 UV-I 1,3 C 47 % 71 % 37 % 1019,1 hPa 0,0 l/m 1,2 km/h (1 Bft) 0 min 0 min 0,0 km/h (0 Bft)
20.11.2011 15:22 18,8 C 11,9 C 0,0 UV-I 1,1 C 47 % 71 % 31 % 1019,1 hPa 0,0 l/m 0,8 km/h (0 Bft) 0 min 0 min 0,0 km/h (0 Bft)
20.11.2011 15:24 18,8 C 11,9 C 0,0 UV-I 0,8 C 47 % 71 % 23 % 1019,1 hPa 0,0 l/m 0,4 km/h (0 Bft) 0 min 0 min 0,0 km/h (0 Bft)
20.11.2011 15:26 18,8 C 11,9 C 0,0 UV-I 0,6 C 47 % 71 % 17 % 1018,9 hPa 0,0 l/m 0,4 km/h (0 Bft) 0 min 0 min 3,2 km/h (1 Bft)
20.11.2011 15:28 18,7 C 11,9 C 0,0 UV-I 0,4 C 47 % 71 % 11 % 1018,9 hPa 0,0 l/m 0,4 km/h (0 Bft) 0 min 0 min 0,0 km/h (0 Bft)
20.11.2011 15:30 18,7 C 11,9 C 0,0 UV-I 0,2 C 47 % 71 % 6 % 1018,9 hPa 0,0 l/m 0,4 km/h (0 Bft) 0 min 0 min 0,0 km/h (0 Bft)
20.11.2011 15:32 18,6 C 11,9 C 0,0 UV-I 0,1 C 47 % 71 % 3 % 1018,9 hPa 0,0 l/m 0,4 km/h (0 Bft) 0 min 0 min 0,0 km/h (0 Bft)
20.11.2011 15:34 18,6 C 11,8 C 0,0 UV-I 0,0 C 47 % 72 % 0 % 1018,9 hPa 0,0 l/m 0,4 km/h (0 Bft) 0 min 0 min 0,0 km/h (0 Bft)
20.11.2011 15:36 18,6 C 11,8 C 0,0 UV-I 0,0 C 48 % 72 % 0 % 1018,9 hPa 0,0 l/m 0,4 km/h (0 Bft) 0 min 0 min 0,0 km/h (0 Bft)
20.11.2011 15:38 18,6 C 11,7 C 0,0 UV-I 0,0 C 48 % 72 % 0 % 1018,9 hPa 0,0 l/m 0,4 km/h (0 Bft) 0 min 0 min 0,0 km/h (0 Bft)
20.11.2011 15:40 18,5 C 11,7 C 0,0 UV-I 0,0 C 48 % 72 % 0 % 1018,9 hPa 0,0 l/m 0,4 km/h (0 Bft) 0 min 0 min 0,0 km/h (0 Bft)
20.11.2011 15:42 18,5 C 11,7 C 0,0 UV-I 0,0 C 48 % 72 % 0 % 1018,9 hPa 0,0 l/m 0,4 km/h (0 Bft) 0 min 0 min 0,0 km/h (0 Bft)
20.11.2011 15:44 18,4 C 11,7 C 0,0 UV-I 0,0 C 48 % 72 % 0 % 1018,9 hPa 0,0 l/m 0,4 km/h (0 Bft) 0 min 0 min 0,0 km/h (0 Bft)
20.11.2011 15:46 18,4 C 11,7 C 0,0 UV-I 0,0 C 48 % 72 % 0 % 1018,8 hPa 0,0 l/m 0,4 km/h (0 Bft) 0 min 0 min 0,0 km/h (0 Bft)
20.11.2011 15:48 18,4 C 11,7 C 0,0 UV-I 0,0 C 48 % 72 % 0 % 1018,8 hPa 0,0 l/m 0,4 km/h (0 Bft) 0 min 0 min 0,0 km/h (0 Bft)
20.11.2011 15:50 18,4 C 11,6 C 0,0 UV-I 0,0 C 48 % 73 % 0 % 1018,8 hPa 0,0 l/m 0,0 km/h (0 Bft) 0 min 0 min 0,0 km/h (0 Bft)
20.11.2011 15:52 18,4 C 11,6 C 0,0 UV-I 0,0 C 48 % 73 % 0 % 1018,8 hPa 0,0 l/m 0,0 km/h (0 Bft) 0 min 0 min 0,0 km/h (0 Bft)
20.11.2011 15:54 18,3 C 11,7 C 0,0 UV-I 0,0 C 48 % 73 % 0 % 1018,8 hPa 0,0 l/m 0,0 km/h (0 Bft) 0 min 0 min 0,0 km/h (0 Bft)
20.11.2011 15:56 18,3 C 11,6 C 0,0 UV-I 0,0 C 48 % 73 % 0 % 1018,8 hPa 0,0 l/m 0,0 km/h (0 Bft) 0 min 0 min 0,0 km/h (0 Bft)
20.11.2011 15:58 18,3 C 11,5 C 0,0 UV-I 0,0 C 48 % 73 % 0 % 1018,8 hPa 0,0 l/m 0,0 km/h (0 Bft) 0 min 0 min 0,0 km/h (0 Bft)
20.11.2011 16:00 18,2 C 11,4 C 0,0 UV-I 0,0 C 48 % 73 % 0 % 1018,8 hPa 0,0 l/m 0,0 km/h (0 Bft) 0 min 0 min 0,0 km/h (0 Bft)
20.11.2011 16:02 18,2 C 11,4 C 0,0 UV-I 0,0 C 48 % 73 % 0 % 1018,8 hPa 0,0 l/m 0,0 km/h (0 Bft) 0 min 0 min 0,0 km/h (0 Bft)
20.11.2011 16:04 18,2 C 11,5 C 0,0 UV-I 0,0 C 48 % 73 % 0 % 1018,8 hPa 0,0 l/m 0,0 km/h (0 Bft) 0 min 0 min 0,0 km/h (0 Bft)
20.11.2011 16:06 18,2 C 11,3 C 0,0 UV-I 0,0 C 48 % 73 % 0 % 1018,3 hPa 0,0 l/m 0,0 km/h (0 Bft) 0 min 0 min 0,0 km/h (0 Bft)
20.11.2011 16:08 18,2 C 11,3 C 0,0 UV-I 0,0 C 49 % 73 % 0 % 1018,3 hPa 0,0 l/m 0,0 km/h (0 Bft) 0 min 0 min 0,0 km/h (0 Bft)
20.11.2011 16:10 18,1 C 11,2 C 0,0 UV-I 0,0 C 48 % 73 % 0 % 1018,3 hPa 0,0 l/m 0,0 km/h (0 Bft) 0 min 0 min 0,0 km/h (0 Bft)
20.11.2011 16:12 18,1 C 11,2 C 0,0 UV-I 0,0 C 49 % 73 % 0 % 1018,3 hPa 0,0 l/m 0,0 km/h (0 Bft) 0 min 0 min 0,0 km/h (0 Bft)
20.11.2011 16:14 18,0 C 11,1 C 0,0 UV-I 0,0 C 49 % 73 % 0 % 1018,3 hPa 0,0 l/m 0,0 km/h (0 Bft) 0 min 0 min 0,0 km/h (0 Bft)
20.11.2011 16:16 18,0 C 11,1 C 0,0 UV-I 0,0 C 49 % 73 % 0 % 1018,3 hPa 0,0 l/m 0,0 km/h (0 Bft) 0 min 0 min 0,0 km/h (0 Bft)
20.11.2011 16:18 18,0 C 11,1 C 0,0 UV-I 0,0 C 49 % 74 % 0 % 1018,3 hPa 0,0 l/m 0,0 km/h (0 Bft) 0 min 0 min 0,0 km/h (0 Bft)
20.11.2011 16:20 18,0 C 10,9 C 0,0 UV-I 0,0 C 49 % 74 % 0 % 1018,3 hPa 0,0 l/m 0,0 km/h (0 Bft) 0 min 0 min 0,0 km/h (0 Bft)
20.11.2011 16:22 18,0 C 10,8 C 0,0 UV-I 0,0 C 49 % 74 % 0 % 1018,3 hPa 0,0 l/m 0,0 km/h (0 Bft) 0 min 0 min 0,0 km/h (0 Bft)
20.11.2011 16:24 18,0 C 10,8 C 0,0 UV-I 0,0 C 49 % 74 % 0 % 1018,3 hPa 0,0 l/m 0,0 km/h (0 Bft) 0 min 0 min 0,0 km/h (0 Bft)
20.11.2011 16:26 17,9 C 10,8 C 0,0 UV-I 0,0 C 49 % 74 % 0 % 1018,2 hPa 0,0 l/m 0,0 km/h (0 Bft) 0 min 0 min 0,0 km/h (0 Bft)
20.11.2011 16:28 17,9 C 10,7 C 0,0 UV-I 0,0 C 49 % 74 % 0 % 1018,2 hPa 0,0 l/m 0,0 km/h (0 Bft) 0 min 0 min 0,0 km/h (0 Bft)
20.11.2011 16:30 17,9 C 10,6 C 0,0 UV-I 0,0 C 49 % 74 % 0 % 1018,2 hPa 0,0 l/m 0,0 km/h (0 Bft) 0 min 0 min 0,0 km/h (0 Bft)
20.11.2011 16:32 17,9 C 10,7 C 0,0 UV-I 0,0 C 49 % 75 % 0 % 1018,2 hPa 0,0 l/m 0,0 km/h (0 Bft) 0 min 0 min 0,0 km/h (0 Bft)
20.11.2011 16:34 17,8 C 10,5 C 0,0 UV-I 0,0 C 49 % 75 % 0 % 1018,2 hPa 0,0 l/m 0,0 km/h (0 Bft) 0 min 0 min 0,0 km/h (0 Bft)
20.11.2011 16:36 17,8 C 10,4 C 0,0 UV-I 0,0 C 49 % 75 % 0 % 1018,2 hPa 0,0 l/m 0,0 km/h (0 Bft) 0 min 0 min 0,0 km/h (0 Bft)
20.11.2011 16:38 17,8 C 10,4 C 0,0 UV-I 0,0 C 49 % 75 % 0 % 1018,2 hPa 0,0 l/m 0,0 km/h (0 Bft) 0 min 0 min 0,0 km/h (0 Bft)
20.11.2011 16:40 17,8 C 10,3 C 0,0 UV-I 0,0 C 49 % 75 % 0 % 1018,2 hPa 0,0 l/m 0,0 km/h (0 Bft) 0 min 0 min 0,0 km/h (0 Bft)
20.11.2011 16:42 17,7 C 10,3 C 0,0 UV-I 0,0 C 49 % 75 % 0 % 1018,2 hPa 0,0 l/m 0,0 km/h (0 Bft) 0 min 0 min 0,0 km/h (0 Bft)
20.11.2011 16:44 17,7 C 10,1 C 0,0 UV-I 0,0 C 49 % 75 % 0 % 1018,2 hPa 0,0 l/m 0,0 km/h (0 Bft) 0 min 0 min 0,0 km/h (0 Bft)
20.11.2011 16:46 17,7 C 10,0 C 0,0 UV-I 0,0 C 49 % 75 % 0 % 1018,5 hPa 0,0 l/m 0,0 km/h (0 Bft) 0 min 0 min 0,0 km/h (0 Bft)
20.11.2011 16:48 17,7 C 10,0 C 0,0 UV-I 0,0 C 49 % 75 % 0 % 1018,5 hPa 0,0 l/m 0,0 km/h (0 Bft) 0 min 0 min 0,0 km/h (0 Bft)
20.11.2011 16:50 17,6 C 9,9 C 0,0 UV-I 0,0 C 49 % 75 % 0 % 1018,5 hPa 0,0 l/m 0,0 km/h (0 Bft) 0 min 0 min 0,0 km/h (0 Bft)
20.11.2011 16:52 17,6 C 9,7 C 0,0 UV-I 0,0 C 50 % 76 % 0 % 1018,5 hPa 0,0 l/m 0,0 km/h (0 Bft) 0 min 0 min 0,0 km/h (0 Bft)
20.11.2011 16:54 17,6 C 9,6 C 0,0 UV-I 0,0 C 50 % 76 % 0 % 1018,5 hPa 0,0 l/m 0,0 km/h (0 Bft) 0 min 0 min 0,0 km/h (0 Bft)
20.11.2011 16:56 17,6 C 9,5 C 0,0 UV-I 0,0 C 50 % 76 % 0 % 1018,5 hPa 0,0 l/m 0,0 km/h (0 Bft) 0 min 0 min 0,0 km/h (0 Bft)
20.11.2011 16:58 17,6 C 9,5 C 0,0 UV-I 0,0 C 50 % 76 % 0 % 1018,5 hPa 0,0 l/m 0,0 km/h (0 Bft) 0 min 0 min 0,0 km/h (0 Bft)
20.11.2011 17:00 17,5 C 9,5 C 0,0 UV-I 0,0 C 50 % 76 % 0 % 1018,5 hPa 0,0 l/m 0,0 km/h (0 Bft) 0 min 0 min 0,0 km/h (0 Bft)
20.11.2011 17:02 17,5 C 9,3 C 0,0 UV-I 0,0 C 50 % 76 % 0 % 1018,5 hPa 0,0 l/m 0,0 km/h (0 Bft) 0 min 0 min 0,0 km/h (0 Bft)
20.11.2011 17:06 17,4 C 9,1 C 0,0 UV-I 0,0 C 50 % 76 % 0 % 1017,6 hPa 0,0 l/m 0,0 km/h (0 Bft) 0 min 0 min 0,0 km/h (0 Bft)
20.11.2011 17:08 17,4 C 9,1 C 0,0 UV-I 0,0 C 50 % 76 % 0 % 1017,6 hPa 0,0 l/m 0,0 km/h (0 Bft) 0 min 0 min 0,0 km/h (0 Bft)
20.11.2011 17:10 17,4 C 8,9 C 0,0 UV-I 0,0 C 50 % 77 % 0 % 1017,6 hPa 0,0 l/m 0,0 km/h (0 Bft) 0 min 0 min 0,0 km/h (0 Bft)
20.11.2011 17:12 17,4 C 8,8 C 0,0 UV-I 0,0 C 50 % 77 % 0 % 1017,6 hPa 0,0 l/m 0,0 km/h (0 Bft) 0 min 0 min 0,0 km/h (0 Bft)
20.11.2011 17:14 17,4 C 8,7 C 0,0 UV-I 0,0 C 50 % 77 % 0 % 1017,6 hPa 0,0 l/m 0,0 km/h (0 Bft) 0 min 0 min 0,0 km/h (0 Bft)
20.11.2011 17:16 17,2 C 8,7 C 0,0 UV-I 0,0 C 50 % 77 % 0 % 1017,6 hPa 0,0 l/m 0,0 km/h (0 Bft) 0 min 0 min 0,0 km/h (0 Bft)
20.11.2011 17:18 17,2 C 8,6 C 0,0 UV-I 0,0 C 50 % 77 % 0 % 1017,6 hPa 0,0 l/m 0,0 km/h (0 Bft) 0 min 0 min 0,0 km/h (0 Bft)
20.11.2011 17:20 17,2 C 8,4 C 0,0 UV-I 0,0 C 50 % 77 % 0 % 1017,6 hPa 0,0 l/m 0,0 km/h (0 Bft) 0 min 0 min 0,0 km/h (0 Bft)
20.11.2011 17:22 17,2 C 8,4 C 0,0 UV-I 0,0 C 50 % 77 % 0 % 1017,6 hPa 0,0 l/m 0,0 km/h (0 Bft) 0 min 0 min 0,0 km/h (0 Bft)
20.11.2011 17:24 17,2 C 8,3 C 0,0 UV-I 0,0 C 50 % 77 % 0 % 1017,6 hPa 0,0 l/m 0,0 km/h (0 Bft) 0 min 0 min 0,0 km/h (0 Bft)
20.11.2011 17:26 17,2 C 8,3 C 0,0 UV-I 0,0 C 50 % 77 % 0 % 1018,1 hPa 0,0 l/m 0,0 km/h (0 Bft) 0 min 0 min 0,0 km/h (0 Bft)
20.11.2011 17:28 17,2 C 8,1 C 0,0 UV-I 0,0 C 50 % 78 % 0 % 1018,1 hPa 0,0 l/m 0,0 km/h (0 Bft) 0 min 2 min 0,0 km/h (0 Bft)
20.11.2011 17:30 17,2 C 8,1 C 0,0 UV-I 0,0 C 50 % 78 % 0 % 1018,1 hPa 0,0 l/m 0,0 km/h (0 Bft) 0 min 0 min 0,0 km/h (0 Bft)
20.11.2011 17:32 17,2 C 7,9 C 0,0 UV-I 0,0 C 51 % 78 % 0 % 1018,1 hPa 0,0 l/m 0,0 km/h (0 Bft) 0 min 0 min 0,0 km/h (0 Bft)
20.11.2011 17:34 17,1 C 7,9 C 0,0 UV-I 0,0 C 51 % 78 % 0 % 1018,1 hPa 0,0 l/m 0,0 km/h (0 Bft) 0 min 0 min 0,0 km/h (0 Bft)
20.11.2011 17:36 17,1 C 7,7 C 0,0 UV-I 0,0 C 51 % 78 % 0 % 1018,1 hPa 0,0 l/m 0,0 km/h (0 Bft) 0 min 0 min 0,0 km/h (0 Bft)
20.11.2011 17:38 17,1 C 7,6 C 0,0 UV-I 0,0 C 51 % 78 % 0 % 1018,1 hPa 0,0 l/m 0,0 km/h (0 Bft) 0 min 0 min 0,0 km/h (0 Bft)
20.11.2011 17:40 17,1 C 7,6 C 0,0 UV-I 0,0 C 51 % 79 % 0 % 1018,1 hPa 0,0 l/m 0,0 km/h (0 Bft) 0 min 0 min 0,0 km/h (0 Bft)
20.11.2011 17:42 17,0 C 7,5 C 0,0 UV-I 0,0 C 51 % 79 % 0 % 1018,1 hPa 0,0 l/m 0,0 km/h (0 Bft) 0 min 0 min 0,0 km/h (0 Bft)
20.11.2011 17:44 17,0 C 7,5 C 0,0 UV-I 0,0 C 51 % 79 % 0 % 1018,1 hPa 0,0 l/m 0,0 km/h (0 Bft) 0 min 0 min 0,0 km/h (0 Bft)
20.11.2011 17:46 17,0 C 7,4 C 0,0 UV-I 0,0 C 51 % 79 % 0 % 1018,1 hPa 0,0 l/m 0,0 km/h (0 Bft) 0 min 0 min 0,0 km/h (0 Bft)
20.11.2011 17:48 17,0 C 7,3 C 0,0 UV-I 0,0 C 51 % 79 % 0 % 1018,1 hPa 0,0 l/m 0,0 km/h (0 Bft) 0 min 0 min 0,0 km/h (0 Bft)
20.11.2011 17:50 17,0 C 7,2 C 0,0 UV-I 0,0 C 51 % 79 % 0 % 1018,1 hPa 0,0 l/m 0,0 km/h (0 Bft) 0 min 0 min 0,0 km/h (0 Bft)
20.11.2011 17:52 16,9 C 7,2 C 0,0 UV-I 0,0 C 51 % 79 % 0 % 1018,1 hPa 0,0 l/m 0,0 km/h (0 Bft) 0 min 0 min 0,0 km/h (0 Bft)
20.11.2011 17:54 16,9 C 7,1 C 0,0 UV-I 0,0 C 51 % 80 % 0 % 1018,1 hPa 0,0 l/m 0,0 km/h (0 Bft) 0 min 0 min 0,0 km/h (0 Bft)
20.11.2011 17:56 16,9 C 7,1 C 0,0 UV-I 0,0 C 51 % 80 % 0 % 1018,1 hPa 0,0 l/m 0,0 km/h (0 Bft) 0 min 0 min 0,0 km/h (0 Bft)
20.11.2011 17:58 16,9 C 6,9 C 0,0 UV-I 0,0 C 51 % 80 % 0 % 1018,1 hPa 0,0 l/m 0,0 km/h (0 Bft) 0 min 0 min 0,0 km/h (0 Bft)
20.11.2011 18:00 16,8 C 6,8 C 0,0 UV-I 0,0 C 51 % 80 % 0 % 1018,1 hPa 0,0 l/m 0,0 km/h (0 Bft) 0 min 0 min 0,0 km/h (0 Bft)
20.11.2011 18:02 16,8 C 6,9 C 0,0 UV-I 0,0 C 51 % 80 % 0 % 1018,1 hPa 0,0 l/m 0,0 km/h (0 Bft) 0 min 0 min 0,0 km/h (0 Bft)
20.11.2011 18:06 16,8 C 6,7 C 0,0 UV-I 0,0 C 51 % 80 % 0 % 1018,1 hPa 0,0 l/m 0,0 km/h (0 Bft) 0 min 0 min 0,0 km/h (0 Bft)
20.11.2011 18:08 16,8 C 6,7 C 0,0 UV-I 0,0 C 51 % 80 % 0 % 1018,1 hPa 0,0 l/m 0,0 km/h (0 Bft) 0 min 0 min 0,0 km/h (0 Bft)
20.11.2011 18:10 16,8 C 6,5 C 0,0 UV-I 0,0 C 51 % 80 % 0 % 1018,1 hPa 0,0 l/m 0,0 km/h (0 Bft) 0 min 0 min 0,0 km/h (0 Bft)
20.11.2011 18:12 16,8 C 6,5 C 0,0 UV-I 0,0 C 51 % 80 % 0 % 1018,1 hPa 0,0 l/m 0,0 km/h (0 Bft) 0 min 0 min 0,0 km/h (0 Bft)
20.11.2011 18:14 16,8 C 6,5 C 0,0 UV-I 0,0 C 51 % 81 % 0 % 1018,1 hPa 0,0 l/m 0,0 km/h (0 Bft) 0 min 0 min 0,0 km/h (0 Bft)
20.11.2011 18:16 16,8 C 6,4 C 0,0 UV-I 0,0 C 51 % 81 % 0 % 1018,1 hPa 0,0 l/m 0,0 km/h (0 Bft) 0 min 0 min 0,0 km/h (0 Bft)
20.11.2011 18:18 16,8 C 6,4 C 0,0 UV-I 0,0 C 51 % 81 % 0 % 1018,1 hPa 0,0 l/m 0,0 km/h (0 Bft) 0 min 0 min 0,0 km/h (0 Bft)
20.11.2011 18:20 16,7 C 6,3 C 0,0 UV-I 0,0 C 51 % 82 % 0 % 1018,1 hPa 0,0 l/m 0,0 km/h (0 Bft) 0 min 0 min 0,0 km/h (0 Bft)
20.11.2011 18:22 16,7 C 6,3 C 0,0 UV-I 0,0 C 51 % 82 % 0 % 1018,1 hPa 0,0 l/m 0,0 km/h (0 Bft) 0 min 0 min 0,0 km/h (0 Bft)
20.11.2011 18:24 16,7 C 6,3 C 0,0 UV-I 0,0 C 51 % 82 % 0 % 1018,1 hPa 0,0 l/m 0,0 km/h (0 Bft) 0 min 0 min 0,0 km/h (0 Bft)
20.11.2011 18:26 16,7 C 6,3 C 0,0 UV-I 0,0 C 51 % 82 % 0 % 1018,0 hPa 0,0 l/m 0,0 km/h (0 Bft) 0 min 0 min 0,0 km/h (0 Bft)
20.11.2011 18:28 16,6 C 6,2 C 0,0 UV-I 0,0 C 51 % 82 % 0 % 1018,0 hPa 0,0 l/m 0,0 km/h (0 Bft) 0 min 0 min 0,0 km/h (0 Bft)
20.11.2011 18:30 16,6 C 6,3 C 0,0 UV-I 0,0 C 51 % 82 % 0 % 1018,0 hPa 0,0 l/m 0,0 km/h (0 Bft) 0 min 0 min 0,0 km/h (0 Bft)
20.11.2011 18:32 16,6 C 6,1 C 0,0 UV-I 0,0 C 51 % 82 % 0 % 1018,0 hPa 0,0 l/m 0,0 km/h (0 Bft) 0 min 0 min 0,0 km/h (0 Bft)
20.11.2011 18:34 16,6 C 6,1 C 0,0 UV-I 0,0 C 51 % 82 % 0 % 1018,0 hPa 0,0 l/m 0,0 km/h (0 Bft) 0 min 0 min 0,0 km/h (0 Bft)
20.11.2011 18:36 16,6 C 6,0 C 0,0 UV-I 0,0 C 51 % 82 % 0 % 1018,0 hPa 0,0 l/m 0,0 km/h (0 Bft) 0 min 0 min 0,0 km/h (0 Bft)
20.11.2011 18:38 16,6 C 6,0 C 0,0 UV-I 0,0 C 51 % 83 % 0 % 1018,0 hPa 0,0 l/m 0,0 km/h (0 Bft) 0 min 0 min 0,0 km/h (0 Bft)
20.11.2011 18:40 16,6 C 5,9 C 0,0 UV-I 0,0 C 51 % 83 % 0 % 1018,0 hPa 0,0 l/m 0,0 km/h (0 Bft) 0 min 0 min 0,0 km/h (0 Bft)
20.11.2011 18:42 16,6 C 5,9 C 0,0 UV-I 0,0 C 51 % 83 % 0 % 1018,0 hPa 0,0 l/m 0,0 km/h (0 Bft) 0 min 0 min 0,0 km/h (0 Bft)
20.11.2011 18:44 16,5 C 5,9 C 0,0 UV-I 0,0 C 51 % 83 % 0 % 1018,0 hPa 0,0 l/m 0,0 km/h (0 Bft) 0 min 0 min 0,0 km/h (0 Bft)
20.11.2011 18:46 16,5 C 5,9 C 0,0 UV-I 0,0 C 51 % 83 % 0 % 1018,2 hPa 0,0 l/m 0,0 km/h (0 Bft) 0 min 0 min 0,0 km/h (0 Bft)
20.11.2011 18:48 16,5 C 5,7 C 0,0 UV-I 0,0 C 51 % 83 % 0 % 1018,2 hPa 0,0 l/m 0,0 km/h (0 Bft) 0 min 0 min 0,0 km/h (0 Bft)
20.11.2011 18:50 16,5 C 5,7 C 0,0 UV-I 0,0 C 51 % 83 % 0 % 1018,2 hPa 0,0 l/m 0,0 km/h (0 Bft) 0 min 0 min 0,0 km/h (0 Bft)
20.11.2011 18:52 16,5 C 5,6 C 0,0 UV-I 0,0 C 51 % 83 % 0 % 1018,2 hPa 0,0 l/m 0,0 km/h (0 Bft) 0 min 0 min 0,0 km/h (0 Bft)
20.11.2011 18:54 16,5 C 5,6 C 0,0 UV-I 0,0 C 51 % 83 % 0 % 1018,2 hPa 0,0 l/m 0,0 km/h (0 Bft) 0 min 0 min 0,0 km/h (0 Bft)
20.11.2011 18:56 16,4 C 5,6 C 0,0 UV-I 0,0 C 51 % 83 % 0 % 1018,2 hPa 0,0 l/m 0,0 km/h (0 Bft) 0 min 0 min 0,0 km/h (0 Bft)
20.11.2011 18:58 16,4 C 5,5 C 0,0 UV-I 0,0 C 51 % 84 % 0 % 1018,2 hPa 0,0 l/m 0,0 km/h (0 Bft) 0 min 0 min 0,0 km/h (0 Bft)
20.11.2011 19:00 16,4 C 5,5 C 0,0 UV-I 0,0 C 51 % 84 % 0 % 1018,2 hPa 0,0 l/m 0,0 km/h (0 Bft) 0 min 0 min 0,0 km/h (0 Bft)
20.11.2011 19:02 16,4 C 5,5 C 0,0 UV-I 0,0 C 51 % 84 % 0 % 1018,2 hPa 0,0 l/m 0,0 km/h (0 Bft) 0 min 0 min 0,0 km/h (0 Bft)
20.11.2011 19:06 16,4 C 5,4 C 0,0 UV-I 0,0 C 51 % 84 % 0 % 1017,9 hPa 0,0 l/m 0,0 km/h (0 Bft) 0 min 0 min 0,0 km/h (0 Bft)
20.11.2011 19:08 16,4 C 5,3 C 0,0 UV-I 0,0 C 51 % 84 % 0 % 1017,9 hPa 0,0 l/m 0,0 km/h (0 Bft) 0 min 0 min 0,0 km/h (0 Bft)
20.11.2011 19:10 16,4 C 5,2 C 0,0 UV-I 0,0 C 51 % 84 % 0 % 1017,9 hPa 0,0 l/m 0,0 km/h (0 Bft) 0 min 0 min 0,0 km/h (0 Bft)
20.11.2011 19:12 16,4 C 5,2 C 0,0 UV-I 0,0 C 51 % 84 % 0 % 1017,9 hPa 0,0 l/m 0,0 km/h (0 Bft) 0 min 0 min 0,0 km/h (0 Bft)
20.11.2011 19:14 16,4 C 5,2 C 0,0 UV-I 0,0 C 51 % 84 % 0 % 1017,9 hPa 0,0 l/m 0,0 km/h (0 Bft) 0 min 0 min 0,0 km/h (0 Bft)
20.11.2011 19:16 16,4 C 5,2 C 0,0 UV-I 0,0 C 51 % 84 % 0 % 1017,9 hPa 0,0 l/m 0,0 km/h (0 Bft) 0 min 0 min 0,0 km/h (0 Bft)
20.11.2011 19:18 16,4 C 5,1 C 0,0 UV-I 0,0 C 51 % 84 % 0 % 1017,9 hPa 0,0 l/m 0,0 km/h (0 Bft) 0 min 0 min 0,0 km/h (0 Bft)
20.11.2011 19:20 16,2 C 5,0 C 0,0 UV-I 0,0 C 51 % 84 % 0 % 1017,9 hPa 0,0 l/m 0,0 km/h (0 Bft) 0 min 0 min 0,0 km/h (0 Bft)
20.11.2011 19:22 16,4 C 5,1 C 0,0 UV-I 0,0 C 51 % 84 % 0 % 1017,9 hPa 0,0 l/m 0,0 km/h (0 Bft) 0 min 0 min 0,0 km/h (0 Bft)
20.11.2011 19:24 16,2 C 4,9 C 0,0 UV-I 0,0 C 51 % 84 % 0 % 1017,9 hPa 0,0 l/m 0,0 km/h (0 Bft) 0 min 0 min 0,0 km/h (0 Bft)
20.11.2011 19:26 16,2 C 4,9 C 0,0 UV-I 0,0 C 51 % 85 % 0 % 1018,0 hPa 0,0 l/m 0,0 km/h (0 Bft) 0 min 0 min 0,0 km/h (0 Bft)
20.11.2011 19:28 16,2 C 4,8 C 0,0 UV-I 0,0 C 51 % 85 % 0 % 1018,0 hPa 0,0 l/m 0,0 km/h (0 Bft) 0 min 0 min 0,0 km/h (0 Bft)
20.11.2011 19:30 16,3 C 4,9 C 0,0 UV-I 0,0 C 51 % 85 % 0 % 1018,0 hPa 0,0 l/m 0,0 km/h (0 Bft) 0 min 0 min 0,0 km/h (0 Bft)
20.11.2011 19:32 16,2 C 4,8 C 0,0 UV-I 0,0 C 51 % 85 % 0 % 1018,0 hPa 0,0 l/m 0,0 km/h (0 Bft) 0 min 0 min 0,0 km/h (0 Bft)
20.11.2011 19:34 16,3 C 4,8 C 0,0 UV-I 0,0 C 51 % 85 % 0 % 1018,0 hPa 0,0 l/m 0,0 km/h (0 Bft) 0 min 0 min 0,0 km/h (0 Bft)
20.11.2011 19:36 16,3 C 4,7 C 0,0 UV-I 0,0 C 51 % 85 % 0 % 1018,0 hPa 0,0 l/m 0,0 km/h (0 Bft) 0 min 0 min 0,0 km/h (0 Bft)
20.11.2011 19:38 16,3 C 4,7 C 0,0 UV-I 0,0 C 51 % 85 % 0 % 1018,0 hPa 0,0 l/m 0,0 km/h (0 Bft) 0 min 0 min 0,0 km/h (0 Bft)
20.11.2011 19:40 16,3 C 4,7 C 0,0 UV-I 0,0 C 51 % 85 % 0 % 1018,0 hPa 0,0 l/m 0,0 km/h (0 Bft) 0 min 0 min 0,0 km/h (0 Bft)
20.11.2011 19:42 16,2 C 4,6 C 0,0 UV-I 0,0 C 51 % 85 % 0 % 1018,0 hPa 0,0 l/m 0,0 km/h (0 Bft) 0 min 0 min 0,0 km/h (0 Bft)
20.11.2011 19:44 16,2 C 4,6 C 0,0 UV-I 0,0 C 51 % 85 % 0 % 1018,0 hPa 0,0 l/m 0,0 km/h (0 Bft) 0 min 0 min 0,0 km/h (0 Bft)
20.11.2011 19:46 16,2 C 4,7 C 0,0 UV-I 0,0 C 51 % 85 % 0 % 1018,0 hPa 0,0 l/m 0,0 km/h (0 Bft) 0 min 0 min 0,0 km/h (0 Bft)
20.11.2011 19:48 16,2 C 4,6 C 0,0 UV-I 0,0 C 51 % 85 % 0 % 1018,0 hPa 0,0 l/m 0,0 km/h (0 Bft) 0 min 0 min 0,0 km/h (0 Bft)
20.11.2011 19:50 16,2 C 4,5 C 0,0 UV-I 0,0 C 51 % 86 % 0 % 1018,0 hPa 0,0 l/m 0,0 km/h (0 Bft) 0 min 0 min 0,0 km/h (0 Bft)
20.11.2011 19:52 16,2 C 4,5 C 0,0 UV-I 0,0 C 51 % 86 % 0 % 1018,0 hPa 0,0 l/m 0,0 km/h (0 Bft) 0 min 0 min 0,0 km/h (0 Bft)
20.11.2011 19:54 16,2 C 4,4 C 0,0 UV-I 0,0 C 51 % 86 % 0 % 1018,0 hPa 0,0 l/m 0,0 km/h (0 Bft) 0 min 0 min 0,0 km/h (0 Bft)
20.11.2011 19:56 16,2 C 4,5 C 0,0 UV-I 0,0 C 51 % 86 % 0 % 1018,0 hPa 0,0 l/m 0,0 km/h (0 Bft) 0 min 0 min 0,0 km/h (0 Bft)
20.11.2011 19:58 16,2 C 4,4 C 0,0 UV-I 0,0 C 51 % 86 % 0 % 1018,0 hPa 0,0 l/m 0,0 km/h (0 Bft) 0 min 0 min 0,0 km/h (0 Bft)
20.11.2011 20:00 16,2 C 4,3 C 0,0 UV-I 0,0 C 51 % 86 % 0 % 1018,0 hPa 0,0 l/m 0,0 km/h (0 Bft) 0 min 0 min 0,0 km/h (0 Bft)
20.11.2011 20:02 16,2 C 4,3 C 0,0 UV-I 0,0 C 51 % 86 % 0 % 1018,0 hPa 0,0 l/m 0,0 km/h (0 Bft) 0 min 0 min 0,0 km/h (0 Bft)
20.11.2011 20:06 16,1 C 4,2 C 0,0 UV-I 0,0 C 51 % 86 % 0 % 1017,8 hPa 0,0 l/m 0,0 km/h (0 Bft) 0 min 0 min 0,0 km/h (0 Bft)
20.11.2011 20:08 16,1 C 4,3 C 0,0 UV-I 0,0 C 51 % 86 % 0 % 1017,8 hPa 0,0 l/m 0,0 km/h (0 Bft) 0 min 0 min 0,0 km/h (0 Bft)
20.11.2011 20:10 16,2 C 4,3 C 0,0 UV-I 0,0 C 51 % 86 % 0 % 1017,8 hPa 0,0 l/m 0,0 km/h (0 Bft) 0 min 0 min 0,0 km/h (0 Bft)
20.11.2011 20:12 16,1 C 4,3 C 0,0 UV-I 0,0 C 51 % 86 % 0 % 1017,8 hPa 0,0 l/m 0,0 km/h (0 Bft) 0 min 0 min 0,0 km/h (0 Bft)
20.11.2011 20:14 16,1 C 4,1 C 0,0 UV-I 0,0 C 51 % 86 % 0 % 1017,8 hPa 0,0 l/m 0,0 km/h (0 Bft) 0 min 0 min 0,0 km/h (0 Bft)
20.11.2011 20:16 16,1 C 4,1 C 0,0 UV-I 0,0 C 51 % 86 % 0 % 1017,8 hPa 0,0 l/m 0,0 km/h (0 Bft) 0 min 0 min 0,0 km/h (0 Bft)
20.11.2011 20:18 16,1 C 4,1 C 0,0 UV-I 0,0 C 51 % 86 % 0 % 1017,8 hPa 0,0 l/m 0,0 km/h (0 Bft) 0 min 0 min 0,0 km/h (0 Bft)
20.11.2011 20:20 16,1 C 4,0 C 0,0 UV-I 0,0 C 51 % 86 % 0 % 1017,8 hPa 0,0 l/m 0,0 km/h (0 Bft) 0 min 0 min 0,0 km/h (0 Bft)
20.11.2011 20:22 16,1 C 4,0 C 0,0 UV-I 0,0 C 51 % 86 % 0 % 1017,8 hPa 0,0 l/m 0,0 km/h (0 Bft) 0 min 0 min 0,0 km/h (0 Bft)
20.11.2011 20:24 16,1 C 4,0 C 0,0 UV-I 0,0 C 51 % 86 % 0 % 1017,8 hPa 0,0 l/m 0,0 km/h (0 Bft) 0 min 0 min 0,0 km/h (0 Bft)
20.11.2011 20:26 16,1 C 4,0 C 0,0 UV-I 0,0 C 51 % 86 % 0 % 1018,1 hPa 0,0 l/m 0,0 km/h (0 Bft) 0 min 0 min 0,0 km/h (0 Bft)
20.11.2011 20:28 15,9 C 4,0 C 0,0 UV-I 0,0 C 51 % 86 % 0 % 1018,1 hPa 0,0 l/m 0,0 km/h (0 Bft) 0 min 0 min 0,0 km/h (0 Bft)
20.11.2011 20:30 15,9 C 3,9 C 0,0 UV-I 0,0 C 51 % 86 % 0 % 1018,1 hPa 0,0 l/m 0,0 km/h (0 Bft) 0 min 0 min 0,0 km/h (0 Bft)
20.11.2011 20:32 15,9 C 3,9 C 0,0 UV-I 0,0 C 51 % 86 % 0 % 1018,1 hPa 0,0 l/m 0,0 km/h (0 Bft) 0 min 0 min 0,0 km/h (0 Bft)
20.11.2011 20:34 15,9 C 3,8 C 0,0 UV-I 0,0 C 51 % 86 % 0 % 1018,1 hPa 0,0 l/m 0,0 km/h (0 Bft) 0 min 0 min 0,0 km/h (0 Bft)
20.11.2011 20:36 15,9 C 3,9 C 0,0 UV-I 0,0 C 51 % 87 % 0 % 1018,1 hPa 0,0 l/m 0,0 km/h (0 Bft) 0 min 0 min 0,0 km/h (0 Bft)
20.11.2011 20:38 15,9 C 3,8 C 0,0 UV-I 0,0 C 51 % 87 % 0 % 1018,1 hPa 0,0 l/m 0,0 km/h (0 Bft) 0 min 0 min 0,0 km/h (0 Bft)
20.11.2011 20:40 15,9 C 3,9 C 0,0 UV-I 0,0 C 51 % 87 % 0 % 1018,1 hPa 0,0 l/m 0,0 km/h (0 Bft) 0 min 0 min 0,0 km/h (0 Bft)
20.11.2011 20:42 15,9 C 3,9 C 0,0 UV-I 0,0 C 51 % 87 % 0 % 1018,1 hPa 0,0 l/m 0,0 km/h (0 Bft) 0 min 0 min 0,0 km/h (0 Bft)
20.11.2011 20:44 16,0 C 3,8 C 0,0 UV-I 0,0 C 51 % 87 % 0 % 1018,1 hPa 0,0 l/m 0,0 km/h (0 Bft) 0 min 0 min 0,0 km/h (0 Bft)
20.11.2011 20:46 16,0 C 3,9 C 0,0 UV-I 0,0 C 51 % 87 % 0 % 1018,0 hPa 0,0 l/m 0,0 km/h (0 Bft) 0 min 0 min 0,0 km/h (0 Bft)
20.11.2011 20:48 16,0 C 3,8 C 0,0 UV-I 0,0 C 51 % 87 % 0 % 1018,0 hPa 0,0 l/m 0,0 km/h (0 Bft) 0 min 2 min 0,0 km/h (0 Bft)
20.11.2011 20:50 16,0 C 3,9 C 0,0 UV-I 0,0 C 51 % 87 % 0 % 1018,0 hPa 0,0 l/m 0,0 km/h (0 Bft) 0 min 0 min 0,0 km/h (0 Bft)
20.11.2011 20:52 16,0 C 3,8 C 0,0 UV-I 0,0 C 51 % 87 % 0 % 1018,0 hPa 0,0 l/m 0,0 km/h (0 Bft) 0 min 0 min 0,0 km/h (0 Bft)
20.11.2011 20:54 16,0 C 3,7 C 0,0 UV-I 0,0 C 51 % 87 % 0 % 1018,0 hPa 0,0 l/m 0,0 km/h (0 Bft) 0 min 0 min 0,0 km/h (0 Bft)
20.11.2011 20:56 16,0 C 3,7 C 0,0 UV-I 0,0 C 51 % 87 % 0 % 1018,0 hPa 0,0 l/m 0,0 km/h (0 Bft) 0 min 0 min 0,0 km/h (0 Bft)
20.11.2011 20:58 16,0 C 3,7 C 0,0 UV-I 0,0 C 51 % 87 % 0 % 1018,0 hPa 0,0 l/m 0,0 km/h (0 Bft) 0 min 0 min 0,0 km/h (0 Bft)
20.11.2011 21:00 16,0 C 3,6 C 0,0 UV-I 0,0 C 51 % 87 % 0 % 1018,0 hPa 0,0 l/m 0,0 km/h (0 Bft) 0 min 0 min 0,0 km/h (0 Bft)
20.11.2011 21:02 16,0 C 3,6 C 0,0 UV-I 0,0 C 51 % 87 % 0 % 1018,0 hPa 0,0 l/m 0,0 km/h (0 Bft) 0 min 0 min 0,0 km/h (0 Bft)
20.11.2011 21:06 16,0 C 3,6 C 0,0 UV-I 0,0 C 51 % 87 % 0 % 1017,3 hPa 0,0 l/m 0,0 km/h (0 Bft) 0 min 0 min 0,0 km/h (0 Bft)
20.11.2011 21:08 16,0 C 3,6 C 0,0 UV-I 0,0 C 51 % 87 % 0 % 1017,3 hPa 0,0 l/m 0,0 km/h (0 Bft) 0 min 0 min 0,0 km/h (0 Bft)
20.11.2011 21:10 16,0 C 3,6 C 0,0 UV-I 0,0 C 51 % 87 % 0 % 1017,3 hPa 0,0 l/m 0,0 km/h (0 Bft) 0 min 0 min 0,0 km/h (0 Bft)
20.11.2011 21:12 16,0 C 3,5 C 0,0 UV-I 0,0 C 51 % 87 % 0 % 1017,3 hPa 0,0 l/m 0,0 km/h (0 Bft) 0 min 0 min 0,0 km/h (0 Bft)
20.11.2011 21:14 15,8 C 3,5 C 0,0 UV-I 0,0 C 51 % 87 % 0 % 1017,3 hPa 0,0 l/m 0,0 km/h (0 Bft) 0 min 0 min 0,0 km/h (0 Bft)
20.11.2011 21:16 15,8 C 3,5 C 0,0 UV-I 0,0 C 51 % 87 % 0 % 1017,3 hPa 0,0 l/m 0,0 km/h (0 Bft) 0 min 0 min 0,0 km/h (0 Bft)
20.11.2011 21:18 15,8 C 3,5 C 0,0 UV-I 0,0 C 51 % 87 % 0 % 1017,3 hPa 0,0 l/m 0,0 km/h (0 Bft) 0 min 0 min 0,0 km/h (0 Bft)
20.11.2011 21:20 15,8 C 3,5 C 0,0 UV-I 0,0 C 51 % 87 % 0 % 1017,3 hPa 0,0 l/m 0,0 km/h (0 Bft) 0 min 0 min 0,0 km/h (0 Bft)
20.11.2011 21:22 15,8 C 3,5 C 0,0 UV-I 0,0 C 51 % 87 % 0 % 1017,3 hPa 0,0 l/m 0,0 km/h (0 Bft) 0 min 0 min 0,0 km/h (0 Bft)
20.11.2011 21:24 15,9 C 3,5 C 0,0 UV-I 0,0 C 51 % 87 % 0 % 1017,3 hPa 0,0 l/m 0,0 km/h (0 Bft) 0 min 0 min 0,0 km/h (0 Bft)
20.11.2011 21:26 15,9 C 3,5 C 0,0 UV-I 0,0 C 51 % 88 % 0 % 1017,7 hPa 0,0 l/m 0,0 km/h (0 Bft) 0 min 0 min 0,0 km/h (0 Bft)
20.11.2011 21:28 15,9 C 3,5 C 0,0 UV-I 0,0 C 51 % 88 % 0 % 1017,7 hPa 0,0 l/m 0,0 km/h (0 Bft) 0 min 0 min 0,0 km/h (0 Bft)
20.11.2011 21:30 15,9 C 3,5 C 0,0 UV-I 0,0 C 51 % 88 % 0 % 1017,7 hPa 0,0 l/m 0,0 km/h (0 Bft) 0 min 0 min 0,0 km/h (0 Bft)
20.11.2011 21:32 15,9 C 3,5 C 0,0 UV-I 0,0 C 51 % 87 % 0 % 1017,7 hPa 0,0 l/m 0,0 km/h (0 Bft) 0 min 0 min 0,0 km/h (0 Bft)
20.11.2011 21:34 15,9 C 3,5 C 0,0 UV-I 0,0 C 51 % 88 % 0 % 1017,7 hPa 0,0 l/m 0,0 km/h (0 Bft) 0 min 0 min 0,0 km/h (0 Bft)
20.11.2011 21:36 15,9 C 3,4 C 0,0 UV-I 0,0 C 51 % 87 % 0 % 1017,7 hPa 0,0 l/m 0,0 km/h (0 Bft) 0 min 0 min 0,0 km/h (0 Bft)
20.11.2011 21:38 15,9 C 3,3 C 0,0 UV-I 0,0 C 51 % 88 % 0 % 1017,7 hPa 0,0 l/m 0,0 km/h (0 Bft) 0 min 0 min 0,0 km/h (0 Bft)
20.11.2011 21:40 15,9 C 3,3 C 0,0 UV-I 0,0 C 51 % 88 % 0 % 1017,7 hPa 0,0 l/m 0,0 km/h (0 Bft) 0 min 0 min 0,0 km/h (0 Bft)
20.11.2011 21:42 15,9 C 3,2 C 0,0 UV-I 0,0 C 51 % 88 % 0 % 1017,7 hPa 0,0 l/m 0,0 km/h (0 Bft) 0 min 0 min 0,0 km/h (0 Bft)
20.11.2011 21:44 15,9 C 3,2 C 0,0 UV-I 0,0 C 51 % 88 % 0 % 1017,7 hPa 0,0 l/m 0,0 km/h (0 Bft) 0 min 0 min 0,0 km/h (0 Bft)
20.11.2011 21:46 15,9 C 3,2 C 0,0 UV-I 0,0 C 51 % 88 % 0 % 1017,8 hPa 0,0 l/m 0,0 km/h (0 Bft) 0 min 0 min 0,0 km/h (0 Bft)
20.11.2011 21:48 15,8 C 3,2 C 0,0 UV-I 0,0 C 51 % 88 % 0 % 1017,8 hPa 0,0 l/m 0,0 km/h (0 Bft) 0 min 0 min 0,0 km/h (0 Bft)
20.11.2011 21:50 15,8 C 3,2 C 0,0 UV-I 0,0 C 51 % 88 % 0 % 1017,8 hPa 0,0 l/m 0,0 km/h (0 Bft) 0 min 0 min 0,0 km/h (0 Bft)
20.11.2011 21:52 15,8 C 3,2 C 0,0 UV-I 0,0 C 51 % 88 % 0 % 1017,8 hPa 0,0 l/m 0,0 km/h (0 Bft) 0 min 0 min 0,0 km/h (0 Bft)
20.11.2011 21:54 15,9 C 3,2 C 0,0 UV-I 0,0 C 51 % 88 % 0 % 1017,8 hPa 0,0 l/m 0,0 km/h (0 Bft) 0 min 0 min 0,0 km/h (0 Bft)
20.11.2011 21:56 15,8 C 3,1 C 0,0 UV-I 0,0 C 51 % 88 % 0 % 1017,8 hPa 0,0 l/m 0,0 km/h (0 Bft) 0 min 0 min 0,0 km/h (0 Bft)
20.11.2011 21:58 15,8 C 3,1 C 0,0 UV-I 0,0 C 51 % 88 % 0 % 1017,8 hPa 0,0 l/m 0,0 km/h (0 Bft) 0 min 2 min 0,0 km/h (0 Bft)
20.11.2011 22:00 15,8 C 3,0 C 0,0 UV-I 0,0 C 51 % 88 % 0 % 1017,8 hPa 0,0 l/m 0,0 km/h (0 Bft) 0 min 0 min 0,0 km/h (0 Bft)
20.11.2011 22:02 15,8 C 3,1 C 0,0 UV-I 0,0 C 51 % 88 % 0 % 1017,8 hPa 0,0 l/m 0,0 km/h (0 Bft) 0 min 0 min 0,0 km/h (0 Bft)
20.11.2011 22:06 15,8 C 2,9 C 0,0 UV-I 0,0 C 51 % 88 % 0 % 1017,9 hPa 0,0 l/m 0,0 km/h (0 Bft) 0 min 0 min 0,0 km/h (0 Bft)
20.11.2011 22:08 15,8 C 2,9 C 0,0 UV-I 0,0 C 51 % 88 % 0 % 1017,9 hPa 0,0 l/m 0,0 km/h (0 Bft) 0 min 0 min 0,0 km/h (0 Bft)
20.11.2011 22:10 15,8 C 2,9 C 0,0 UV-I 0,0 C 51 % 88 % 0 % 1017,9 hPa 0,0 l/m 0,0 km/h (0 Bft) 0 min 0 min 0,0 km/h (0 Bft)
20.11.2011 22:12 15,8 C 2,8 C 0,0 UV-I 0,0 C 51 % 88 % 0 % 1017,9 hPa 0,0 l/m 0,0 km/h (0 Bft) 0 min 0 min 0,0 km/h (0 Bft)
20.11.2011 22:14 15,8 C 2,9 C 0,0 UV-I 0,0 C 51 % 88 % 0 % 1017,9 hPa 0,0 l/m 0,0 km/h (0 Bft) 0 min 0 min 0,0 km/h (0 Bft)
20.11.2011 22:16 15,8 C 2,8 C 0,0 UV-I 0,0 C 51 % 88 % 0 % 1017,9 hPa 0,0 l/m 0,0 km/h (0 Bft) 0 min 0 min 0,0 km/h (0 Bft)
20.11.2011 22:18 15,8 C 2,8 C 0,0 UV-I 0,0 C 51 % 88 % 0 % 1017,9 hPa 0,0 l/m 0,0 km/h (0 Bft) 0 min 0 min 0,0 km/h (0 Bft)
20.11.2011 22:20 15,8 C 2,8 C 0,0 UV-I 0,0 C 51 % 88 % 0 % 1017,9 hPa 0,0 l/m 0,0 km/h (0 Bft) 0 min 0 min 0,0 km/h (0 Bft)
20.11.2011 22:22 15,8 C 2,8 C 0,0 UV-I 0,0 C 51 % 88 % 0 % 1017,9 hPa 0,0 l/m 0,0 km/h (0 Bft) 0 min 0 min 0,0 km/h (0 Bft)
20.11.2011 22:24 15,8 C 2,7 C 0,0 UV-I 0,0 C 51 % 88 % 0 % 1017,9 hPa 0,0 l/m 0,0 km/h (0 Bft) 0 min 0 min 0,0 km/h (0 Bft)
20.11.2011 22:26 15,8 C 2,7 C 0,0 UV-I 0,0 C 51 % 89 % 0 % 1017,6 hPa 0,0 l/m 0,0 km/h (0 Bft) 0 min 0 min 0,0 km/h (0 Bft)
20.11.2011 22:28 15,8 C 2,7 C 0,0 UV-I 0,0 C 51 % 88 % 0 % 1017,6 hPa 0,0 l/m 0,0 km/h (0 Bft) 0 min 0 min 0,0 km/h (0 Bft)
20.11.2011 22:30 15,8 C 2,7 C 0,0 UV-I 0,0 C 50 % 88 % 0 % 1017,6 hPa 0,0 l/m 0,0 km/h (0 Bft) 0 min 0 min 0,0 km/h (0 Bft)
20.11.2011 22:32 15,8 C 2,7 C 0,0 UV-I 0,0 C 51 % 88 % 0 % 1017,6 hPa 0,0 l/m 0,0 km/h (0 Bft) 0 min 0 min 0,0 km/h (0 Bft)
20.11.2011 22:34 15,8 C 2,6 C 0,0 UV-I 0,0 C 50 % 88 % 0 % 1017,6 hPa 0,0 l/m 0,0 km/h (0 Bft) 0 min 0 min 0,0 km/h (0 Bft)
20.11.2011 22:36 15,6 C 2,5 C 0,0 UV-I 0,0 C 50 % 89 % 0 % 1017,6 hPa 0,0 l/m 0,0 km/h (0 Bft) 0 min 0 min 0,0 km/h (0 Bft)
20.11.2011 22:38 15,6 C 2,5 C 0,0 UV-I 0,0 C 50 % 89 % 0 % 1017,6 hPa 0,0 l/m 0,0 km/h (0 Bft) 0 min 0 min 0,0 km/h (0 Bft)
20.11.2011 22:40 15,6 C 2,5 C 0,0 UV-I 0,0 C 50 % 89 % 0 % 1017,6 hPa 0,0 l/m 0,0 km/h (0 Bft) 0 min 0 min 0,0 km/h (0 Bft)
20.11.2011 22:42 15,6 C 2,5 C 0,0 UV-I 0,0 C 50 % 89 % 0 % 1017,6 hPa 0,0 l/m 0,0 km/h (0 Bft) 0 min 0 min 0,0 km/h (0 Bft)
20.11.2011 22:44 15,6 C 2,4 C 0,0 UV-I 0,0 C 50 % 89 % 0 % 1017,6 hPa 0,0 l/m 0,0 km/h (0 Bft) 0 min 0 min 0,0 km/h (0 Bft)
20.11.2011 22:46 15,6 C 2,5 C 0,0 UV-I 0,0 C 50 % 89 % 0 % 1017,8 hPa 0,0 l/m 0,0 km/h (0 Bft) 0 min 0 min 0,0 km/h (0 Bft)
20.11.2011 22:48 15,6 C 2,4 C 0,0 UV-I 0,0 C 50 % 89 % 0 % 1017,8 hPa 0,0 l/m 0,0 km/h (0 Bft) 0 min 0 min 0,0 km/h (0 Bft)
20.11.2011 22:50 15,7 C 2,4 C 0,0 UV-I 0,0 C 50 % 89 % 0 % 1017,8 hPa 0,0 l/m 0,0 km/h (0 Bft) 0 min 0 min 0,0 km/h (0 Bft)
20.11.2011 22:52 15,6 C 2,4 C 0,0 UV-I 0,0 C 50 % 89 % 0 % 1017,8 hPa 0,0 l/m 0,0 km/h (0 Bft) 0 min 0 min 0,0 km/h (0 Bft)
20.11.2011 22:54 15,6 C 2,3 C 0,0 UV-I 0,0 C 50 % 89 % 0 % 1017,8 hPa 0,0 l/m 0,0 km/h (0 Bft) 0 min 0 min 0,0 km/h (0 Bft)
20.11.2011 22:56 15,7 C 2,3 C 0,0 UV-I 0,0 C 50 % 89 % 0 % 1017,8 hPa 0,0 l/m 0,0 km/h (0 Bft) 0 min 0 min 0,0 km/h (0 Bft)
20.11.2011 22:58 15,7 C 2,2 C 0,0 UV-I 0,0 C 50 % 89 % 0 % 1017,8 hPa 0,0 l/m 0,0 km/h (0 Bft) 0 min 0 min 0,0 km/h (0 Bft)
20.11.2011 23:00 15,7 C 2,3 C 0,0 UV-I 0,0 C 50 % 89 % 0 % 1017,8 hPa 0,0 l/m 0,0 km/h (0 Bft) 0 min 0 min 0,0 km/h (0 Bft)
20.11.2011 23:02 15,7 C 2,3 C 0,0 UV-I 0,0 C 50 % 89 % 0 % 1017,8 hPa 0,0 l/m 0,0 km/h (0 Bft) 0 min 0 min 0,0 km/h (0 Bft)
20.11.2011 23:06 15,7 C 2,2 C 0,0 UV-I 0,0 C 50 % 89 % 0 % 1017,3 hPa 0,0 l/m 0,0 km/h (0 Bft) 0 min 0 min 0,0 km/h (0 Bft)
20.11.2011 23:08 15,7 C 2,2 C 0,0 UV-I 0,0 C 50 % 89 % 0 % 1017,3 hPa 0,0 l/m 0,0 km/h (0 Bft) 0 min 0 min 0,0 km/h (0 Bft)
20.11.2011 23:10 15,7 C 2,1 C 0,0 UV-I 0,0 C 50 % 88 % 0 % 1017,3 hPa 0,0 l/m 0,0 km/h (0 Bft) 0 min 0 min 0,0 km/h (0 Bft)
20.11.2011 23:12 15,6 C 2,1 C 0,0 UV-I 0,0 C 50 % 88 % 0 % 1017,3 hPa 0,0 l/m 0,0 km/h (0 Bft) 0 min 0 min 0,0 km/h (0 Bft)
20.11.2011 23:14 15,6 C 2,1 C 0,0 UV-I 0,0 C 50 % 89 % 0 % 1017,3 hPa 0,0 l/m 0,0 km/h (0 Bft) 0 min 0 min 0,0 km/h (0 Bft)
20.11.2011 23:16 15,6 C 2,0 C 0,0 UV-I 0,0 C 50 % 89 % 0 % 1017,3 hPa 0,0 l/m 0,0 km/h (0 Bft) 0 min 0 min 0,0 km/h (0 Bft)
20.11.2011 23:18 15,6 C 2,0 C 0,0 UV-I 0,0 C 50 % 89 % 0 % 1017,3 hPa 0,0 l/m 0,0 km/h (0 Bft) 0 min 0 min 0,0 km/h (0 Bft)
20.11.2011 23:20 15,6 C 2,0 C 0,0 UV-I 0,0 C 50 % 89 % 0 % 1017,3 hPa 0,0 l/m 0,0 km/h (0 Bft) 0 min 0 min 0,0 km/h (0 Bft)
20.11.2011 23:22 15,6 C 2,1 C 0,0 UV-I 0,0 C 50 % 89 % 0 % 1017,3 hPa 0,0 l/m 0,0 km/h (0 Bft) 0 min 2 min 0,0 km/h (0 Bft)
20.11.2011 23:24 15,6 C 2,0 C 0,0 UV-I 0,0 C 50 % 89 % 0 % 1017,3 hPa 0,0 l/m 0,0 km/h (0 Bft) 0 min 0 min 0,0 km/h (0 Bft)
20.11.2011 23:26 15,6 C 2,0 C 0,0 UV-I 0,0 C 50 % 89 % 0 % 1017,1 hPa 0,0 l/m 0,0 km/h (0 Bft) 0 min 0 min 0,0 km/h (0 Bft)
20.11.2011 23:28 15,6 C 2,0 C 0,0 UV-I 0,0 C 50 % 89 % 0 % 1017,1 hPa 0,0 l/m 0,0 km/h (0 Bft) 0 min 0 min 0,0 km/h (0 Bft)
20.11.2011 23:30 15,6 C 2,0 C 0,0 UV-I 0,0 C 50 % 89 % 0 % 1017,1 hPa 0,0 l/m 0,0 km/h (0 Bft) 0 min 0 min 0,0 km/h (0 Bft)
20.11.2011 23:32 15,6 C 2,0 C 0,0 UV-I 0,0 C 50 % 89 % 0 % 1017,1 hPa 0,0 l/m 0,0 km/h (0 Bft) 0 min 0 min 0,0 km/h (0 Bft)
20.11.2011 23:34 15,6 C 2,0 C 0,0 UV-I 0,0 C 50 % 89 % 0 % 1017,1 hPa 0,0 l/m 0,0 km/h (0 Bft) 0 min 2 min 0,0 km/h (0 Bft)
20.11.2011 23:36 15,6 C 2,0 C 0,0 UV-I 0,0 C 50 % 89 % 0 % 1017,1 hPa 0,0 l/m 0,0 km/h (0 Bft) 0 min 0 min 0,0 km/h (0 Bft)
20.11.2011 23:38 15,6 C 2,0 C 0,0 UV-I 0,0 C 50 % 89 % 0 % 1017,1 hPa 0,0 l/m 0,0 km/h (0 Bft) 0 min 0 min 0,0 km/h (0 Bft)
20.11.2011 23:40 15,6 C 1,9 C 0,0 UV-I 0,0 C 50 % 89 % 0 % 1017,1 hPa 0,0 l/m 0,0 km/h (0 Bft) 0 min 0 min 0,0 km/h (0 Bft)
20.11.2011 23:42 15,6 C 1,9 C 0,0 UV-I 0,0 C 50 % 89 % 0 % 1017,1 hPa 0,0 l/m 0,0 km/h (0 Bft) 0 min 0 min 0,0 km/h (0 Bft)
20.11.2011 23:44 15,6 C 1,9 C 0,0 UV-I 0,0 C 50 % 89 % 0 % 1017,1 hPa 0,0 l/m 0,0 km/h (0 Bft) 0 min 0 min 0,0 km/h (0 Bft)
20.11.2011 23:46 15,6 C 1,9 C 0,0 UV-I 0,0 C 50 % 89 % 0 % 1016,9 hPa 0,0 l/m 0,0 km/h (0 Bft) 0 min 0 min 0,0 km/h (0 Bft)
20.11.2011 23:48 15,6 C 1,9 C 0,0 UV-I 0,0 C 50 % 89 % 0 % 1016,9 hPa 0,0 l/m 0,0 km/h (0 Bft) 0 min 2 min 0,0 km/h (0 Bft)
20.11.2011 23:50 15,6 C 1,9 C 0,0 UV-I 0,0 C 50 % 89 % 0 % 1016,9 hPa 0,0 l/m 0,0 km/h (0 Bft) 0 min 0 min 0,0 km/h (0 Bft)
20.11.2011 23:52 15,6 C 1,9 C 0,0 UV-I 0,0 C 50 % 89 % 0 % 1016,9 hPa 0,0 l/m 0,0 km/h (0 Bft) 0 min 0 min 0,0 km/h (0 Bft)
20.11.2011 23:54 15,6 C 1,9 C 0,0 UV-I 0,0 C 50 % 89 % 0 % 1016,9 hPa 0,0 l/m 0,0 km/h (0 Bft) 0 min 0 min 0,0 km/h (0 Bft)
20.11.2011 23:56 15,6 C 1,9 C 0,0 UV-I 0,0 C 50 % 90 % 0 % 1016,9 hPa 0,0 l/m 0,0 km/h (0 Bft) 0 min 0 min 0,0 km/h (0 Bft)
20.11.2011 23:58 15,6 C 1,9 C 0,0 UV-I 0,0 C 50 % 89 % 0 % 1016,9 hPa 0,0 l/m 0,0 km/h (0 Bft) 0 min 0 min 0,0 km/h (0 Bft)
_ Min-Zeit 07:26 23:40 00:00 00:00 15:06 14:26 00:00 23:46 - 00:00 - - 00:00
Minimum _ 15,2 C 1,9 C 0,0 UV-I 0,0 C 47 % 69 % 0 % 1016,9 hPa - 0,0 km/h (0 Bft) - - 0,0 km/h (0 Bft)
_ Max-Zeit 14:58 14:02 12:20 12:16 11:56 09:08 09:38 10:46 00:00 13:46 09:28 01:16 11:26
Maximum _ 18,9 C 13,7 C 0,7 UV-I 7,3 C 52 % 92 % 100 % 1019,6 hPa 0,0 l/m 5,2 km/h
S-SO (1 Bft)
2 min 2 min 9,7 km/h
SO (2 Bft)
Durchschnitt _ 16,2 C 6,0 C 0,1 UV-I 1,3 C 51 % 84 % 24 % 1018,6 hPa #0,0 l/m 0,4 km/h (0 Bft) #5:52 h #28 min. 0,6 km/h (0 Bft)
© 2012 W. Hausmann